Time,TemperatureF,DewpointF,PressureIn,WindDirection,WindDirectionDegrees,WindSpeedMPH,WindSpeedGustMPH,Humidity,HourlyPrecipIn,Conditions,Clouds,dailyrainin,SoftwareType,DateUTC
2013-03-17 00:00:00,9.2,2.0,30.17,ENE,75,0.0,2.0,72,0.00,,SCT042,0.00,VWS V12.07,2013-03-17 05:00:00,
2013-03-17 00:04:00,10.7,3.5,30.14,NW,322,1.0,4.0,72,0.00,,BKN045,0.01,VWS V12.07,2013-03-17 05:04:00,
2013-03-17 00:09:00,10.7,4.1,30.14,NW,326,1.0,3.0,74,0.00,,BKN045,0.01,VWS V12.07,2013-03-17 05:09:00,
2013-03-17 00:10:00,8.8,1.6,30.17,NW,304,0.0,2.0,72,0.00,,SCT042,0.00,VWS V12.07,2013-03-17 05:10:00,
2013-03-17 00:14:00,10.7,4.1,30.14,NNE,21,1.0,3.0,74,0.00,,BKN045,0.01,VWS V12.07,2013-03-17 05:14:00,
2013-03-17 00:15:00,10.7,4.1,30.15,NE,49,3.0,4.0,74,0.00,,BKN045,0.01,VWS V12.07,2013-03-17 05:15:00,
2013-03-17 00:19:00,10.5,4.2,30.15,NNE,27,0.0,10.0,75,0.00,,BKN045,0.01,VWS V12.07,2013-03-17 05:19:00,
2013-03-17 00:20:00,10.5,4.2,30.15,NNE,27,0.0,10.0,75,0.00,,BKN045,0.01,VWS V12.07,2013-03-17 05:20:00,
2013-03-17 00:24:00,10.2,3.6,30.15,NNE,24,0.0,10.0,74,0.00,,BKN045,0.01,VWS V12.07,2013-03-17 05:24:00,
2013-03-17 00:25:00,10.2,3.6,30.15,NNE,24,0.0,10.0,74,0.00,,BKN045,0.01,VWS V12.07,2013-03-17 05:25:00,
2013-03-17 00:26:00,10.2,3.6,30.15,ENE,59,0.0,10.0,74,0.00,,BKN045,0.01,VWS V12.07,2013-03-17 05:26:00,
2013-03-17 00:29:00,10.0,3.1,30.16,NW,324,0.0,10.0,73,0.00,,BKN045,0.01,VWS V12.07,2013-03-17 05:29:00,
2013-03-17 00:30:00,10.0,3.1,30.16,NE,45,2.0,10.0,73,0.00,,BKN045,0.01,VWS V12.07,2013-03-17 05:30:00,
2013-03-17 00:31:00,10.0,3.1,30.16,WNW,297,0.0,10.0,73,0.00,,BKN045,0.01,VWS V12.07,2013-03-17 05:31:00,
2013-03-17 00:34:00,9.9,3.0,30.16,NW,308,0.0,2.0,73,0.00,,BKN045,0.01,VWS V12.07,2013-03-17 05:34:00,
2013-03-17 00:35:00,9.9,3.0,30.16,NW,308,0.0,2.0,73,0.00,,BKN045,0.01,VWS V12.07,2013-03-17 05:35:00,
2013-03-17 00:36:00,9.7,2.8,30.16,NW,308,0.0,2.0,73,0.00,,BKN045,0.01,VWS V12.07,2013-03-17 05:36:00,
2013-03-17 00:40:00,9.5,2.6,30.16,NW,318,0.0,2.0,73,0.00,,BKN045,0.01,VWS V12.07,2013-03-17 05:40:00,
2013-03-17 00:42:00,9.3,2.1,30.16,NW,322,0.0,2.0,72,0.00,,,0.01,VWS V12.07,2013-03-17 05:42:00,
2013-03-17 00:45:00,9.2,2.0,30.17,ENE,75,0.0,2.0,72,0.00,,,0.00,VWS V12.07,2013-03-17 05:45:00,
2013-03-17 00:47:00,9.2,2.0,30.17,ENE,74,0.0,2.0,72,0.00,,,0.00,VWS V12.07,2013-03-17 05:47:00,
2013-03-17 00:50:00,9.0,1.8,30.17,NW,304,0.0,2.0,72,0.00,,,0.00,VWS V12.07,2013-03-17 05:50:00,
2013-03-17 00:52:00,8.8,1.6,30.17,NW,304,0.0,2.0,72,0.00,,SCT042,0.00,VWS V12.07,2013-03-17 05:52:00,
2013-03-17 00:53:00,8.8,1.6,30.17,NW,304,0.0,2.0,72,0.00,,SCT042,0.00,VWS V12.07,2013-03-17 05:53:00,
2013-03-17 00:55:00,8.6,1.7,30.17,NW,304,0.0,2.0,73,0.00,,SCT042,0.00,VWS V12.07,2013-03-17 05:55:00,
2013-03-17 00:57:00,8.6,1.7,30.17,NW,304,0.0,1.0,73,0.00,,SCT042,0.00,VWS V12.07,2013-03-17 05:57:00,
2013-03-17 00:58:00,8.6,1.7,30.17,NW,304,0.0,1.0,73,0.00,,SCT042,0.00,VWS V12.07,2013-03-17 05:58:00,
2013-03-17 01:00:00,6.0,-1.1,30.20,NW,304,0.0,0.0,72,0.00,,SCT037,0.00,VWS V12.07,2013-03-17 06:00:00,
2013-03-17 01:01:00,8.4,1.5,30.17,NW,304,0.0,1.0,73,0.00,,SCT042,0.00,VWS V12.07,2013-03-17 06:01:00,
2013-03-17 01:02:00,8.3,1.5,30.17,NW,304,0.0,1.0,73,0.00,,SCT042,0.00,VWS V12.07,2013-03-17 06:02:00,
2013-03-17 01:03:00,8.3,1.5,30.17,NW,304,0.0,1.0,73,0.00,,SCT042,0.00,VWS V12.07,2013-03-17 06:03:00,
2013-03-17 01:07:00,8.1,1.2,30.17,NW,304,0.0,0.0,73,0.00,,SCT042,0.00,VWS V12.07,2013-03-17 06:07:00,
2013-03-17 01:08:00,7.9,1.1,30.17,NW,304,0.0,0.0,73,0.00,,SCT042,0.00,VWS V12.07,2013-03-17 06:08:00,
2013-03-17 01:10:00,5.2,-1.5,30.20,NW,304,0.0,0.0,73,0.00,,SCT037,0.00,VWS V12.07,2013-03-17 06:10:00,
2013-03-17 01:12:00,7.7,0.9,30.17,NW,304,0.0,0.0,73,0.00,,SCT042,0.00,VWS V12.07,2013-03-17 06:12:00,
2013-03-17 01:13:00,7.6,0.8,30.17,NW,304,0.0,0.0,73,0.00,,SCT042,0.00,VWS V12.07,2013-03-17 06:13:00,
2013-03-17 01:17:00,7.2,0.4,30.18,NW,304,0.0,0.0,73,0.00,,SCT042,0.00,VWS V12.07,2013-03-17 06:17:00,
2013-03-17 01:18:00,7.2,0.4,30.18,NW,304,0.0,0.0,73,0.00,,SCT042,0.00,VWS V12.07,2013-03-17 06:18:00,
2013-03-17 01:19:00,7.2,0.4,30.18,NW,304,0.0,0.0,73,0.00,,SCT042,0.00,VWS V12.07,2013-03-17 06:19:00,
2013-03-17 01:20:00,4.7,-1.8,30.21,NW,304,0.0,0.0,74,0.00,,SCT037,0.00,VWS V12.07,2013-03-17 06:20:00,
2013-03-17 01:22:00,7.0,0.2,30.18,NW,304,0.0,1.0,73,0.00,,SCT042,0.00,VWS V12.07,2013-03-17 06:22:00,
2013-03-17 01:23:00,7.0,0.2,30.18,NW,304,0.0,1.0,73,0.00,,SCT042,0.00,VWS V12.07,2013-03-17 06:23:00,
2013-03-17 01:24:00,6.9,0.1,30.18,NW,304,0.0,1.0,73,0.00,,SCT042,0.00,VWS V12.07,2013-03-17 06:24:00,
2013-03-17 01:27:00,6.9,0.1,30.18,NW,304,0.0,1.0,73,0.00,,SCT042,0.00,VWS V12.07,2013-03-17 06:27:00,
2013-03-17 01:28:00,6.9,0.1,30.18,NW,304,0.0,1.0,73,0.00,,SCT042,0.00,VWS V12.07,2013-03-17 06:28:00,
2013-03-17 01:29:00,6.7,-0.1,30.20,NW,304,0.0,1.0,73,0.00,,SCT042,0.00,VWS V12.07,2013-03-17 06:29:00,
2013-03-17 01:30:00,4.3,-2.1,30.22,NW,304,0.0,0.0,74,0.00,,SCT037,0.00,VWS V12.07,2013-03-17 06:30:00,
2013-03-17 01:32:00,6.7,-0.1,30.20,NW,304,0.0,1.0,73,0.00,,SCT042,0.00,VWS V12.07,2013-03-17 06:32:00,
2013-03-17 01:33:00,6.5,-0.3,30.20,NW,304,0.0,1.0,73,0.00,,SCT042,0.00,VWS V12.07,2013-03-17 06:33:00,
2013-03-17 01:34:00,6.5,-0.3,30.20,NW,304,0.0,1.0,73,0.00,,SCT042,0.00,VWS V12.07,2013-03-17 06:34:00,
2013-03-17 01:38:00,6.3,-0.5,30.20,NW,304,0.0,0.0,73,0.00,,SCT042,0.00,VWS V12.07,2013-03-17 06:38:00,
2013-03-17 01:39:00,6.3,-0.5,30.20,NW,304,0.0,0.0,73,0.00,,SCT042,0.00,VWS V12.07,2013-03-17 06:39:00,
2013-03-17 01:40:00,4.1,-2.0,30.22,NW,304,0.0,0.0,75,0.00,,SCT037,0.00,VWS V12.07,2013-03-17 06:40:00,
2013-03-17 01:43:00,6.1,-1.0,30.20,NW,304,0.0,0.0,72,0.00,,SCT035,0.00,VWS V12.07,2013-03-17 06:43:00,
2013-03-17 01:44:00,6.1,-1.0,30.20,NW,304,0.0,0.0,72,0.00,,SCT035,0.00,VWS V12.07,2013-03-17 06:44:00,
2013-03-17 01:45:00,6.0,-1.1,30.20,NW,304,0.0,0.0,72,0.00,,SCT035,0.00,VWS V12.07,2013-03-17 06:45:00,
2013-03-17 01:49:00,5.8,-1.3,30.20,NW,304,0.0,0.0,72,0.00,,SCT035,0.00,VWS V12.07,2013-03-17 06:49:00,
2013-03-17 01:50:00,5.6,-1.5,30.20,NW,304,0.0,0.0,72,0.00,,SCT037,0.00,VWS V12.07,2013-03-17 06:50:00,
2013-03-17 01:54:00,5.2,-1.5,30.20,NW,304,0.0,0.0,73,0.00,,SCT037,0.00,VWS V12.07,2013-03-17 06:54:00,
2013-03-17 01:55:00,5.2,-1.5,30.20,NW,304,0.0,0.0,73,0.00,,SCT037,0.00,VWS V12.07,2013-03-17 06:55:00,
2013-03-17 01:59:00,4.8,-1.9,30.21,NW,304,0.0,0.0,73,0.00,,SCT037,0.00,VWS V12.07,2013-03-17 06:59:00,
2013-03-17 02:00:00,4.8,-1.9,30.21,NW,304,0.0,0.0,73,0.00,,SCT037,0.00,VWS V12.07,2013-03-17 07:00:00,
2013-03-17 02:04:00,4.7,-1.8,30.21,NW,304,0.0,0.0,74,0.00,,SCT037,0.00,VWS V12.07,2013-03-17 07:04:00,
2013-03-17 02:05:00,4.7,-1.8,30.21,NW,304,0.0,0.0,74,0.00,,SCT037,0.00,VWS V12.07,2013-03-17 07:05:00,
2013-03-17 02:09:00,4.5,-1.9,30.21,NW,304,0.0,0.0,74,0.00,,SCT037,0.00,VWS V12.07,2013-03-17 07:09:00,
2013-03-17 02:10:00,4.5,-1.9,30.21,NW,304,0.0,0.0,74,0.00,,SCT037,0.00,VWS V12.07,2013-03-17 07:10:00,
2013-03-17 02:11:00,4.5,-1.9,30.21,NW,304,0.0,0.0,74,0.00,,SCT037,0.00,VWS V12.07,2013-03-17 07:11:00,
2013-03-17 02:15:00,4.3,-2.1,30.22,NW,304,0.0,0.0,74,0.00,,SCT037,0.00,VWS V12.07,2013-03-17 07:15:00,
2013-03-17 02:16:00,4.3,-1.9,30.22,NW,304,0.0,0.0,75,0.00,,SCT037,0.00,VWS V12.07,2013-03-17 07:16:00,
2013-03-17 02:17:00,4.3,-1.9,30.22,NW,304,0.0,0.0,75,0.00,,SCT037,0.00,VWS V12.07,2013-03-17 07:17:00,
2013-03-17 02:20:00,4.1,-2.0,30.22,NW,304,0.0,0.0,75,0.00,,SCT037,0.00,VWS V12.07,2013-03-17 07:20:00,
2013-03-17 02:21:00,4.1,-2.0,30.22,NW,304,0.0,0.0,75,0.00,,SCT037,0.00,VWS V12.07,2013-03-17 07:21:00,
2013-03-17 02:22:00,4.1,-2.0,30.22,NW,304,0.0,0.0,75,0.00,,SCT037,0.00,VWS V12.07,2013-03-17 07:22:00,
2013-03-17 02:25:00,4.1,-2.0,30.22,NW,304,0.0,0.0,75,0.00,,SCT037,0.00,VWS V12.07,2013-03-17 07:25:00,
2013-03-17 02:26:00,4.1,-2.0,30.22,NW,304,0.0,0.0,75,0.00,,SCT037,0.00,VWS V12.07,2013-03-17 07:26:00,
2013-03-17 02:27:00,4.1,-2.0,30.22,NW,304,0.0,0.0,75,0.00,,SCT037,0.00,VWS V12.07,2013-03-17 07:27:00,
2013-03-17 02:30:00,3.9,-2.2,30.22,NW,304,0.0,0.0,75,0.00,,SCT037,0.00,VWS V12.07,2013-03-17 07:30:00,
2013-03-17 02:31:00,3.9,-2.2,30.22,NW,304,0.0,0.0,75,0.00,,SCT037,0.00,VWS V12.07,2013-03-17 07:31:00,
2013-03-17 02:33:00,3.9,-2.2,30.22,NW,304,0.0,0.0,75,0.00,,SCT037,0.00,VWS V12.07,2013-03-17 07:33:00,
2013-03-17 02:35:00,3.7,-2.2,30.22,NW,304,0.0,0.0,76,0.00,,SCT037,0.00,VWS V12.07,2013-03-17 07:35:00,
2013-03-17 02:37:00,3.5,-2.3,30.22,NW,304,0.0,0.0,76,0.00,,SCT020,0.00,VWS V12.07,2013-03-17 07:37:00,
2013-03-17 02:38:00,3.5,-2.6,30.22,NW,304,0.0,0.0,75,0.00,,SCT020,0.00,VWS V12.07,2013-03-17 07:38:00,
2013-03-17 02:40:00,1.3,-4.2,30.24,NW,304,0.0,0.0,77,0.00,,SCT033,0.00,VWS V12.07,2013-03-17 07:40:00,
2013-03-17 02:41:00,3.4,-2.5,30.22,NW,304,0.0,0.0,76,0.00,,SCT020,0.00,VWS V12.07,2013-03-17 07:41:00,
2013-03-17 02:42:00,3.4,-2.5,30.22,NW,304,0.0,0.0,76,0.00,,SCT020,0.00,VWS V12.07,2013-03-17 07:42:00,
2013-03-17 02:43:00,3.2,-2.6,30.22,NW,304,0.0,0.0,76,0.00,,SCT020,0.00,VWS V12.07,2013-03-17 07:43:00,
2013-03-17 02:46:00,3.0,-2.8,30.23,NW,304,0.0,0.0,76,0.00,,SCT020,0.00,VWS V12.07,2013-03-17 07:46:00,
2013-03-17 02:47:00,3.0,-2.8,30.23,NW,304,0.0,0.0,76,0.00,,SCT020,0.00,VWS V12.07,2013-03-17 07:47:00,
2013-03-17 02:49:00,3.0,-2.8,30.23,NW,304,0.0,0.0,76,0.00,,SCT020,0.00,VWS V12.07,2013-03-17 07:49:00,
2013-03-17 02:50:00,0.7,-4.5,30.24,NW,304,0.0,0.0,78,0.00,,SCT031,0.00,VWS V12.07,2013-03-17 07:50:00,
2013-03-17 02:51:00,2.8,-3.0,30.23,NW,304,0.0,0.0,76,0.00,,SCT033,0.00,VWS V12.07,2013-03-17 07:51:00,
2013-03-17 02:52:00,2.8,-3.0,30.23,NW,304,0.0,0.0,76,0.00,,SCT033,0.00,VWS V12.07,2013-03-17 07:52:00,
2013-03-17 02:54:00,2.6,-3.2,30.23,NW,304,0.0,0.0,76,0.00,,SCT033,0.00,VWS V12.07,2013-03-17 07:54:00,
2013-03-17 02:56:00,2.6,-3.2,30.23,NW,304,0.0,0.0,76,0.00,,SCT033,0.00,VWS V12.07,2013-03-17 07:56:00,
2013-03-17 02:57:00,2.4,-3.4,30.23,NW,304,0.0,0.0,76,0.00,,SCT033,0.00,VWS V12.07,2013-03-17 07:57:00,
2013-03-17 02:58:00,2.4,-3.4,30.23,NW,304,0.0,0.0,76,0.00,,SCT033,0.00,VWS V12.07,2013-03-17 07:58:00,
2013-03-17 02:59:00,2.4,-3.4,30.23,NW,304,0.0,0.0,76,0.00,,SCT033,0.00,VWS V12.07,2013-03-17 07:59:00,
2013-03-17 03:00:00,0.3,-4.7,30.24,NW,304,0.0,0.0,79,0.00,,CLR,0.00,VWS V12.07,2013-03-17 08:00:00,
2013-03-17 03:02:00,2.2,-3.6,30.24,NW,304,0.0,0.0,76,0.00,,SCT033,0.00,VWS V12.07,2013-03-17 08:02:00,
2013-03-17 03:04:00,2.0,-3.5,30.24,NW,304,0.0,0.0,77,0.00,,SCT033,0.00,VWS V12.07,2013-03-17 08:04:00,
2013-03-17 03:07:00,1.8,-3.7,30.24,NW,304,0.0,0.0,77,0.00,,SCT033,0.00,VWS V12.07,2013-03-17 08:07:00,
2013-03-17 03:08:00,1.8,-3.7,30.24,NW,304,0.0,0.0,77,0.00,,SCT033,0.00,VWS V12.07,2013-03-17 08:08:00,
2013-03-17 03:09:00,1.8,-3.7,30.24,NW,304,0.0,0.0,77,0.00,,SCT033,0.00,VWS V12.07,2013-03-17 08:09:00,
2013-03-17 03:10:00,0.5,-4.5,30.24,NW,304,0.0,0.0,79,0.00,,CLR,0.00,VWS V12.07,2013-03-17 08:10:00,
2013-03-17 03:12:00,1.7,-3.6,30.24,NW,304,0.0,0.0,78,0.00,,SCT033,0.00,VWS V12.07,2013-03-17 08:12:00,
2013-03-17 03:14:00,1.7,-3.6,30.24,NW,304,0.0,0.0,78,0.00,,SCT033,0.00,VWS V12.07,2013-03-17 08:14:00,
2013-03-17 03:17:00,1.7,-3.6,30.24,NW,304,0.0,0.0,78,0.00,,SCT033,0.00,VWS V12.07,2013-03-17 08:17:00,
2013-03-17 03:19:00,1.5,-3.8,30.24,NW,304,0.0,0.0,78,0.00,,SCT033,0.00,VWS V12.07,2013-03-17 08:19:00,
2013-03-17 03:20:00,1.5,-4.0,30.24,NW,304,0.0,0.0,77,0.00,,SCT033,0.00,VWS V12.07,2013-03-17 08:20:00,
2013-03-17 03:22:00,1.3,-4.2,30.24,NW,304,0.0,0.0,77,0.00,,SCT033,0.00,VWS V12.07,2013-03-17 08:22:00,
2013-03-17 03:24:00,1.3,-4.2,30.24,NW,304,0.0,0.0,77,0.00,,SCT033,0.00,VWS V12.07,2013-03-17 08:24:00,
2013-03-17 03:25:00,1.3,-4.2,30.24,NW,304,0.0,0.0,77,0.00,,SCT033,0.00,VWS V12.07,2013-03-17 08:25:00,
2013-03-17 03:27:00,1.1,-4.1,30.24,NW,304,0.0,0.0,78,0.00,,SCT033,0.00,VWS V12.07,2013-03-17 08:27:00,
2013-03-17 03:30:00,0.9,-4.3,30.24,NW,304,0.0,0.0,78,0.00,,SCT033,0.00,VWS V12.07,2013-03-17 08:30:00,
2013-03-17 03:32:00,0.9,-4.3,30.24,NW,304,0.0,0.0,78,0.00,,SCT033,0.00,VWS V12.07,2013-03-17 08:32:00,
2013-03-17 03:35:00,0.7,-4.5,30.24,NW,304,0.0,0.0,78,0.00,,SCT033,0.00,VWS V12.07,2013-03-17 08:35:00,
2013-03-17 03:38:00,0.5,-4.7,30.24,NW,304,0.0,0.0,78,0.00,,SCT031,0.00,VWS V12.07,2013-03-17 08:38:00,
2013-03-17 03:40:00,0.5,-4.7,30.24,NW,304,0.0,0.0,78,0.00,,SCT031,0.00,VWS V12.07,2013-03-17 08:40:00,
2013-03-17 03:43:00,0.3,-4.9,30.24,NW,304,0.0,0.0,78,0.00,,SCT031,0.00,VWS V12.07,2013-03-17 08:43:00,
2013-03-17 03:45:00,0.3,-4.7,30.24,NW,304,0.0,0.0,79,0.00,,SCT031,0.00,VWS V12.07,2013-03-17 08:45:00,
2013-03-17 03:48:00,0.3,-4.7,30.24,NW,304,0.0,0.0,79,0.00,,SCT031,0.00,VWS V12.07,2013-03-17 08:48:00,
2013-03-17 03:50:00,0.3,-4.7,30.24,NW,304,0.0,0.0,79,0.00,,CLR,0.00,VWS V12.07,2013-03-17 08:50:00,
2013-03-17 03:51:00,0.3,-4.4,30.24,NW,304,0.0,0.0,80,0.00,,CLR,0.00,VWS V12.07,2013-03-17 08:51:00,
2013-03-17 03:55:00,0.5,-4.5,30.24,NW,304,0.0,0.0,79,0.00,,CLR,0.00,VWS V12.07,2013-03-17 08:55:00,
2013-03-17 03:56:00,0.5,-4.5,30.24,NW,304,0.0,0.0,79,0.00,,CLR,0.00,VWS V12.07,2013-03-17 08:56:00,
2013-03-17 04:00:00,0.3,-4.7,30.24,NW,304,0.0,0.0,79,0.00,,CLR,0.00,VWS V12.07,2013-03-17 09:00:00,
2013-03-17 04:01:00,0.3,-4.7,30.24,NW,304,0.0,0.0,79,0.00,,CLR,0.00,VWS V12.07,2013-03-17 09:01:00,
2013-03-17 04:05:00,0.3,-4.7,30.24,NW,304,0.0,0.0,79,0.00,,CLR,0.00,VWS V12.07,2013-03-17 09:05:00,
2013-03-17 04:06:00,0.1,-4.8,30.24,NW,304,0.0,1.0,79,0.00,,CLR,0.00,VWS V12.07,2013-03-17 09:06:00,
2013-03-17 04:07:00,0.1,-4.8,30.24,NW,304,0.0,1.0,79,0.00,,CLR,0.00,VWS V12.07,2013-03-17 09:07:00,
2013-03-17 04:10:00,0.1,-4.8,30.24,NW,304,0.0,1.0,79,0.00,,CLR,0.00,VWS V12.07,2013-03-17 09:10:00,
2013-03-17 04:11:00,0.1,-4.8,30.24,NW,304,0.0,1.0,79,0.00,,CLR,0.00,VWS V12.07,2013-03-17 09:11:00,
2013-03-17 04:12:00,0.1,-4.8,30.24,NW,304,0.0,1.0,79,0.00,,CLR,0.00,VWS V12.07,2013-03-17 09:12:00,
2013-03-17 04:13:00,0.1,-4.8,30.24,NW,304,0.0,1.0,79,0.00,,CLR,0.00,VWS V12.07,2013-03-17 09:13:00,
2013-03-17 04:15:00,0.1,-5.2,30.25,NW,304,0.0,1.0,78,0.00,,CLR,0.00,VWS V12.07,2013-03-17 09:15:00,
2013-03-17 04:17:00,0.1,-5.2,30.25,NW,304,0.0,1.0,78,0.00,,CLR,0.00,VWS V12.07,2013-03-17 09:17:00,
2013-03-17 04:18:00,0.1,-4.9,30.25,NW,304,0.0,1.0,79,0.00,,CLR,0.00,VWS V12.07,2013-03-17 09:18:00,
2013-03-17 04:20:00,0.1,-4.8,30.25,NW,304,0.0,1.0,79,0.00,,CLR,0.00,VWS V12.07,2013-03-17 09:20:00,
2013-03-17 04:22:00,0.1,-4.8,30.25,NW,304,0.0,1.0,79,0.00,,CLR,0.00,VWS V12.07,2013-03-17 09:22:00,
2013-03-17 04:23:00,0.1,-4.8,30.25,NW,304,0.0,1.0,79,0.00,,CLR,0.00,VWS V12.07,2013-03-17 09:23:00,
2013-03-17 04:25:00,0.1,-5.2,30.25,NW,304,0.0,1.0,78,0.00,,CLR,0.00,VWS V12.07,2013-03-17 09:25:00,
2013-03-17 04:27:00,0.1,-5.2,30.25,NW,304,0.0,1.0,78,0.00,,CLR,0.00,VWS V12.07,2013-03-17 09:27:00,
2013-03-17 04:28:00,-0.2,-5.4,30.25,NW,304,0.0,1.0,78,0.00,,CLR,0.00,VWS V12.07,2013-03-17 09:28:00,
2013-03-17 04:30:00,-3.7,-8.8,30.25,NW,304,0.0,0.0,78,0.00,,CLR,0.00,VWS V12.07,2013-03-17 09:30:00,
2013-03-17 04:31:00,-0.4,-5.6,30.25,NW,304,0.0,1.0,78,0.00,,CLR,0.00,VWS V12.07,2013-03-17 09:31:00,
2013-03-17 04:32:00,-0.4,-5.6,30.25,NW,304,0.0,1.0,78,0.00,,CLR,0.00,VWS V12.07,2013-03-17 09:32:00,
2013-03-17 04:33:00,-0.6,-5.8,30.25,NW,304,0.0,1.0,78,0.00,,CLR,0.00,VWS V12.07,2013-03-17 09:33:00,
2013-03-17 04:36:00,-1.0,-6.5,30.25,NW,304,0.0,0.0,77,0.00,,CLR,0.00,VWS V12.07,2013-03-17 09:36:00,
2013-03-17 04:37:00,-1.0,-6.5,30.25,NW,304,0.0,0.0,77,0.00,,CLR,0.00,VWS V12.07,2013-03-17 09:37:00,
2013-03-17 04:38:00,-1.2,-6.7,30.25,NW,304,0.0,0.0,77,0.00,,CLR,0.00,VWS V12.07,2013-03-17 09:38:00,
2013-03-17 04:39:00,-1.2,-6.7,30.25,NW,304,0.0,0.0,77,0.00,,CLR,0.00,VWS V12.07,2013-03-17 09:39:00,
2013-03-17 04:40:00,-3.5,-8.4,30.25,NW,304,0.0,1.0,79,0.00,,CLR,0.00,VWS V12.07,2013-03-17 09:40:00,
2013-03-17 04:42:00,-1.6,-7.0,30.25,NW,304,0.0,0.0,77,0.00,,CLR,0.00,VWS V12.07,2013-03-17 09:42:00,
2013-03-17 04:43:00,-1.8,-7.2,30.25,NW,304,0.0,0.0,77,0.00,,CLR,0.00,VWS V12.07,2013-03-17 09:43:00,
2013-03-17 04:44:00,-1.8,-7.2,30.25,NW,304,0.0,0.0,77,0.00,,CLR,0.00,VWS V12.07,2013-03-17 09:44:00,
2013-03-17 04:47:00,-2.2,-7.6,30.25,NW,304,0.0,0.0,77,0.00,,CLR,0.00,VWS V12.07,2013-03-17 09:47:00,
2013-03-17 04:48:00,-2.2,-7.6,30.25,NW,304,0.0,0.0,77,0.00,,CLR,0.00,VWS V12.07,2013-03-17 09:48:00,
2013-03-17 04:49:00,-2.2,-7.6,30.25,NW,304,0.0,0.0,77,0.00,,CLR,0.00,VWS V12.07,2013-03-17 09:49:00,
2013-03-17 04:50:00,-3.5,-8.6,30.25,NW,304,0.0,1.0,78,0.00,,CLR,0.00,VWS V12.07,2013-03-17 09:50:00,
2013-03-17 04:52:00,-2.4,-7.6,30.25,NW,304,0.0,0.0,78,0.00,,CLR,0.00,VWS V12.07,2013-03-17 09:52:00,
2013-03-17 04:53:00,-2.6,-7.8,30.25,NW,304,0.0,0.0,78,0.00,,CLR,0.00,VWS V12.07,2013-03-17 09:53:00,
2013-03-17 04:54:00,-2.6,-7.8,30.25,NW,304,0.0,0.0,78,0.00,,CLR,0.00,VWS V12.07,2013-03-17 09:54:00,
2013-03-17 04:57:00,-2.8,-7.9,30.25,NW,304,0.0,0.0,78,0.00,,CLR,0.00,VWS V12.07,2013-03-17 09:57:00,
2013-03-17 04:58:00,-2.8,-7.9,30.25,NW,304,0.0,0.0,78,0.00,,CLR,0.00,VWS V12.07,2013-03-17 09:58:00,
2013-03-17 04:59:00,-2.8,-7.9,30.25,NW,304,0.0,0.0,78,0.00,,CLR,0.00,VWS V12.07,2013-03-17 09:59:00,
2013-03-17 05:00:00,-3.9,-9.0,30.26,NW,304,0.0,0.0,78,0.00,,CLR,0.00,VWS V12.07,2013-03-17 10:00:00,
2013-03-17 05:02:00,-2.8,-7.9,30.25,NW,304,0.0,0.0,78,0.00,,CLR,0.00,VWS V12.07,2013-03-17 10:02:00,
2013-03-17 05:03:00,-2.8,-7.7,30.25,NW,304,0.0,0.0,79,0.00,,CLR,0.00,VWS V12.07,2013-03-17 10:03:00,
2013-03-17 05:04:00,-3.1,-8.0,30.25,NW,304,0.0,0.0,79,0.00,,CLR,0.00,VWS V12.07,2013-03-17 10:04:00,
2013-03-17 05:08:00,-3.1,-8.2,30.25,NW,304,0.0,0.0,78,0.00,,CLR,0.00,VWS V12.07,2013-03-17 10:08:00,
2013-03-17 05:09:00,-3.3,-8.4,30.25,NW,304,0.0,0.0,78,0.00,,CLR,0.00,VWS V12.07,2013-03-17 10:09:00,
2013-03-17 05:10:00,-3.3,-8.4,30.25,NW,304,0.0,0.0,78,0.00,,CLR,0.00,VWS V12.07,2013-03-17 10:10:00,
2013-03-17 05:13:00,-3.5,-8.6,30.25,NW,304,0.0,0.0,78,0.00,,CLR,0.00,VWS V12.07,2013-03-17 10:13:00,
2013-03-17 05:15:00,-3.7,-8.8,30.25,NW,304,0.0,0.0,78,0.00,,CLR,0.00,VWS V12.07,2013-03-17 10:15:00,
2013-03-17 05:16:00,-3.7,-8.8,30.25,NW,304,0.0,0.0,78,0.00,,CLR,0.00,VWS V12.07,2013-03-17 10:16:00,
2013-03-17 05:18:00,-3.7,-8.8,30.25,NW,304,0.0,0.0,78,0.00,,CLR,0.00,VWS V12.07,2013-03-17 10:18:00,
2013-03-17 05:20:00,-3.7,-8.8,30.25,NW,304,0.0,0.0,78,0.00,,CLR,0.00,VWS V12.07,2013-03-17 10:20:00,
2013-03-17 05:21:00,-3.7,-8.8,30.25,NW,304,0.0,0.0,78,0.00,,CLR,0.00,VWS V12.07,2013-03-17 10:21:00,
2013-03-17 05:23:00,-3.5,-8.4,30.25,NW,304,0.0,1.0,79,0.00,,CLR,0.00,VWS V12.07,2013-03-17 10:23:00,
2013-03-17 05:25:00,-3.5,-8.4,30.25,NW,304,0.0,1.0,79,0.00,,CLR,0.00,VWS V12.07,2013-03-17 10:25:00,
2013-03-17 05:26:00,-3.5,-8.4,30.25,NW,304,0.0,1.0,79,0.00,,CLR,0.00,VWS V12.07,2013-03-17 10:26:00,
2013-03-17 05:28:00,-3.3,-8.2,30.25,NW,304,0.0,1.0,79,0.00,,CLR,0.00,VWS V12.07,2013-03-17 10:28:00,
2013-03-17 05:30:00,-3.5,-8.6,30.25,NW,304,0.0,1.0,78,0.00,,CLR,0.00,VWS V12.07,2013-03-17 10:30:00,
2013-03-17 05:32:00,-3.5,-8.6,30.25,NW,304,0.0,1.0,78,0.00,,CLR,0.00,VWS V12.07,2013-03-17 10:32:00,
2013-03-17 05:33:00,-3.5,-8.6,30.25,NW,304,0.0,1.0,78,0.00,,CLR,0.00,VWS V12.07,2013-03-17 10:33:00,
2013-03-17 05:35:00,-3.5,-8.6,30.25,NW,304,0.0,1.0,78,0.00,,CLR,0.00,VWS V12.07,2013-03-17 10:35:00,
2013-03-17 05:37:00,-3.7,-8.8,30.25,NW,304,0.0,1.0,78,0.00,,CLR,0.00,VWS V12.07,2013-03-17 10:37:00,
2013-03-17 05:39:00,-3.7,-8.8,30.25,NW,304,0.0,1.0,78,0.00,,CLR,0.00,VWS V12.07,2013-03-17 10:39:00,
2013-03-17 05:40:00,-5.9,-11.2,30.27,NW,304,0.0,0.0,77,0.00,,CLR,0.00,VWS V12.07,2013-03-17 10:40:00,
2013-03-17 05:41:00,-3.7,-8.8,30.25,NW,304,0.0,1.0,78,0.00,,CLR,0.00,VWS V12.07,2013-03-17 10:41:00,
2013-03-17 05:42:00,-3.7,-8.8,30.25,NW,304,0.0,1.0,78,0.00,,CLR,0.00,VWS V12.07,2013-03-17 10:42:00,
2013-03-17 05:44:00,-3.7,-8.8,30.25,NW,304,0.0,1.0,78,0.00,,CLR,0.00,VWS V12.07,2013-03-17 10:44:00,
2013-03-17 05:47:00,-3.9,-9.0,30.26,NW,304,0.0,1.0,78,0.00,,CLR,0.00,VWS V12.07,2013-03-17 10:47:00,
2013-03-17 05:48:00,-3.9,-9.0,30.26,NW,304,0.0,1.0,78,0.00,,CLR,0.00,VWS V12.07,2013-03-17 10:48:00,
2013-03-17 05:49:00,-3.9,-9.0,30.26,NW,304,0.0,1.0,78,0.00,,CLR,0.00,VWS V12.07,2013-03-17 10:49:00,
2013-03-17 05:50:00,-3.9,-9.0,30.26,NW,304,0.0,1.0,78,0.00,,CLR,0.00,VWS V12.07,2013-03-17 10:50:00,
2013-03-17 05:52:00,-4.1,-9.5,30.26,NW,304,0.0,1.0,77,0.00,,CLR,0.00,VWS V12.07,2013-03-17 10:52:00,
2013-03-17 05:53:00,-4.1,-9.5,30.26,NW,304,0.0,1.0,77,0.00,,CLR,0.00,VWS V12.07,2013-03-17 10:53:00,
2013-03-17 05:54:00,-4.1,-9.5,30.26,NW,304,0.0,1.0,77,0.00,,CLR,0.00,VWS V12.07,2013-03-17 10:54:00,
2013-03-17 05:55:00,-4.1,-9.5,30.26,NW,304,0.0,1.0,77,0.00,,CLR,0.00,VWS V12.07,2013-03-17 10:55:00,
2013-03-17 05:58:00,-4.3,-9.7,30.26,NW,304,0.0,1.0,77,0.00,,CLR,0.00,VWS V12.07,2013-03-17 10:58:00,
2013-03-17 05:59:00,-4.3,-9.7,30.26,NW,304,0.0,1.0,77,0.00,,CLR,0.00,VWS V12.07,2013-03-17 10:59:00,
2013-03-17 06:00:00,-4.3,-9.7,30.27,NW,304,0.0,1.0,77,0.00,,CLR,0.00,VWS V12.07,2013-03-17 11:00:00,
2013-03-17 06:02:00,-4.6,-10.0,30.27,NW,304,0.0,1.0,77,0.00,,CLR,0.00,VWS V12.07,2013-03-17 11:02:00,
2013-03-17 06:03:00,-4.8,-10.4,30.27,NW,304,0.0,1.0,76,0.00,,CLR,0.00,VWS V12.07,2013-03-17 11:03:00,
2013-03-17 06:04:00,-4.8,-10.4,30.27,NW,304,0.0,1.0,76,0.00,,CLR,0.00,VWS V12.07,2013-03-17 11:04:00,
2013-03-17 06:05:00,-4.8,-10.4,30.27,NW,304,0.0,1.0,76,0.00,,CLR,0.00,VWS V12.07,2013-03-17 11:05:00,
2013-03-17 06:07:00,-5.0,-10.6,30.27,NW,304,0.0,1.0,76,0.00,,CLR,0.00,VWS V12.07,2013-03-17 11:07:00,
2013-03-17 06:09:00,-5.2,-10.8,30.27,NW,304,0.0,1.0,76,0.00,,CLR,0.00,VWS V12.07,2013-03-17 11:09:00,
2013-03-17 06:10:00,-5.2,-10.8,30.27,NW,304,0.0,1.0,76,0.00,,CLR,0.00,VWS V12.07,2013-03-17 11:10:00,
2013-03-17 06:12:00,-5.4,-11.0,30.27,NW,304,0.0,1.0,76,0.00,,CLR,0.00,VWS V12.07,2013-03-17 11:12:00,
2013-03-17 06:14:00,-5.4,-11.0,30.27,NW,304,0.0,1.0,76,0.00,,CLR,0.00,VWS V12.07,2013-03-17 11:14:00,
2013-03-17 06:15:00,-5.4,-11.0,30.27,NW,304,0.0,1.0,76,0.00,,CLR,0.00,VWS V12.07,2013-03-17 11:15:00,
2013-03-17 06:17:00,-5.6,-11.2,30.27,NW,304,0.0,1.0,76,0.00,,CLR,0.00,VWS V12.07,2013-03-17 11:17:00,
2013-03-17 06:19:00,-5.6,-11.2,30.27,NW,304,0.0,1.0,76,0.00,,CLR,0.00,VWS V12.07,2013-03-17 11:19:00,
2013-03-17 06:20:00,-5.6,-11.2,30.27,NW,304,0.0,1.0,76,0.00,,CLR,0.00,VWS V12.07,2013-03-17 11:20:00,
2013-03-17 06:22:00,-5.6,-10.9,30.27,NW,304,0.0,1.0,77,0.00,,CLR,0.00,VWS V12.07,2013-03-17 11:22:00,
2013-03-17 06:24:00,-5.9,-11.5,30.27,NW,304,0.0,1.0,76,0.00,,CLR,0.00,VWS V12.07,2013-03-17 11:24:00,
2013-03-17 06:25:00,-5.9,-11.2,30.27,NW,304,0.0,1.0,77,0.00,,CLR,0.00,VWS V12.07,2013-03-17 11:25:00,
2013-03-17 06:28:00,-5.9,-11.2,30.27,NW,304,0.0,1.0,77,0.00,,CLR,0.00,VWS V12.07,2013-03-17 11:28:00,
2013-03-17 06:29:00,-5.9,-11.5,30.27,NW,304,0.0,1.0,76,0.00,,CLR,0.00,VWS V12.07,2013-03-17 11:29:00,
2013-03-17 06:30:00,-5.9,-11.5,30.27,NW,304,0.0,1.0,76,0.00,,CLR,0.00,VWS V12.07,2013-03-17 11:30:00,
2013-03-17 06:31:00,-5.9,-11.5,30.27,NW,304,0.0,1.0,76,0.00,,CLR,0.00,VWS V12.07,2013-03-17 11:31:00,
2013-03-17 06:33:00,-6.1,-11.7,30.27,NW,304,0.0,1.0,76,0.00,,CLR,0.00,VWS V12.07,2013-03-17 11:33:00,
2013-03-17 06:35:00,-6.1,-11.7,30.27,NW,304,0.0,1.0,76,0.00,,CLR,0.00,VWS V12.07,2013-03-17 11:35:00,
2013-03-17 06:36:00,-6.1,-11.7,30.27,NW,304,0.0,1.0,76,0.00,,CLR,0.00,VWS V12.07,2013-03-17 11:36:00,
2013-03-17 06:38:00,-6.1,-11.7,30.27,NW,304,0.0,1.0,76,0.00,,CLR,0.00,VWS V12.07,2013-03-17 11:38:00,
2013-03-17 06:40:00,-6.1,-11.7,30.27,NW,304,0.0,1.0,76,0.00,,CLR,0.00,VWS V12.07,2013-03-17 11:40:00,
2013-03-17 06:42:00,-6.3,-11.9,30.27,NW,304,0.0,1.0,76,0.00,,CLR,0.00,VWS V12.07,2013-03-17 11:42:00,
2013-03-17 06:43:00,-6.3,-11.9,30.27,NW,304,0.0,1.0,76,0.00,,CLR,0.00,VWS V12.07,2013-03-17 11:43:00,
2013-03-17 06:45:00,-6.3,-11.9,30.27,NW,304,0.0,1.0,76,0.00,,CLR,0.00,VWS V12.07,2013-03-17 11:45:00,
2013-03-17 06:47:00,-6.5,-12.1,30.27,NW,304,0.0,1.0,76,0.00,,CLR,0.00,VWS V12.07,2013-03-17 11:47:00,
2013-03-17 06:49:00,-6.5,-12.1,30.27,NW,304,0.0,1.0,76,0.00,,CLR,0.00,VWS V12.07,2013-03-17 11:49:00,
2013-03-17 06:50:00,-6.5,-12.1,30.27,NW,304,0.0,1.0,76,0.00,,CLR,0.00,VWS V12.07,2013-03-17 11:50:00,
2013-03-17 06:51:00,-6.8,-12.6,30.27,NW,304,0.0,1.0,75,0.00,,CLR,0.00,VWS V12.07,2013-03-17 11:51:00,
2013-03-17 06:53:00,-6.8,-12.6,30.27,NW,304,0.0,1.0,75,0.00,,CLR,0.00,VWS V12.07,2013-03-17 11:53:00,
2013-03-17 06:54:00,-7.0,-12.8,30.27,NW,304,0.0,1.0,75,0.00,,CLR,0.00,VWS V12.07,2013-03-17 11:54:00,
2013-03-17 06:55:00,-7.0,-12.8,30.27,NW,304,0.0,1.0,75,0.00,,CLR,0.00,VWS V12.07,2013-03-17 11:55:00,
2013-03-17 06:56:00,-7.0,-12.8,30.27,NW,304,0.0,1.0,75,0.00,,CLR,0.00,VWS V12.07,2013-03-17 11:56:00,
2013-03-17 06:58:00,-7.2,-13.0,30.27,NW,304,0.0,1.0,75,0.00,,CLR,0.00,VWS V12.07,2013-03-17 11:58:00,
2013-03-17 07:00:00,-7.2,-13.0,30.28,NW,304,0.0,1.0,75,0.00,,CLR,0.00,VWS V12.07,2013-03-17 12:00:00,
2013-03-17 07:02:00,-7.2,-13.0,30.28,NW,304,0.0,1.0,75,0.00,,CLR,0.00,VWS V12.07,2013-03-17 12:02:00,
2013-03-17 07:03:00,-7.5,-13.3,30.28,NW,304,0.0,1.0,75,0.00,,CLR,0.00,VWS V12.07,2013-03-17 12:03:00,
2013-03-17 07:05:00,-7.5,-13.3,30.28,NW,304,0.0,1.0,75,0.00,,CLR,0.00,VWS V12.07,2013-03-17 12:05:00,
2013-03-17 07:07:00,-7.5,-13.6,30.28,NW,304,0.0,1.0,74,0.00,,CLR,0.00,VWS V12.07,2013-03-17 12:07:00,
2013-03-17 07:08:00,-7.7,-13.8,30.28,NW,304,0.0,1.0,74,0.00,,CLR,0.00,VWS V12.07,2013-03-17 12:08:00,
2013-03-17 07:10:00,-7.7,-13.8,30.28,NW,304,0.0,1.0,74,0.00,,CLR,0.00,VWS V12.07,2013-03-17 12:10:00,
2013-03-17 07:12:00,-7.7,-13.8,30.28,NW,304,0.0,1.0,74,0.00,,CLR,0.00,VWS V12.07,2013-03-17 12:12:00,
2013-03-17 07:14:00,-7.9,-14.0,30.28,NW,304,0.0,1.0,74,0.00,,CLR,0.00,VWS V12.07,2013-03-17 12:14:00,
2013-03-17 07:15:00,-7.9,-14.0,30.28,NW,304,0.0,1.0,74,0.00,,CLR,0.00,VWS V12.07,2013-03-17 12:15:00,
2013-03-17 07:16:00,-7.9,-14.0,30.28,NW,304,0.0,1.0,74,0.00,,CLR,0.00,VWS V12.07,2013-03-17 12:16:00,
2013-03-17 07:18:00,-7.9,-14.0,30.28,NW,304,0.0,1.0,74,0.00,,CLR,0.00,VWS V12.07,2013-03-17 12:18:00,
2013-03-17 07:19:00,-7.9,-14.0,30.28,NW,304,0.0,1.0,74,0.00,,CLR,0.00,VWS V12.07,2013-03-17 12:19:00,
2013-03-17 07:20:00,-7.9,-14.0,30.29,NW,304,0.0,0.0,74,0.00,,CLR,0.00,VWS V12.07,2013-03-17 12:20:00,
2013-03-17 07:21:00,-8.2,-14.2,30.28,NW,304,0.0,1.0,74,0.00,,CLR,0.00,VWS V12.07,2013-03-17 12:21:00,
2013-03-17 07:23:00,-8.2,-14.2,30.28,NW,304,0.0,1.0,74,0.00,,CLR,0.00,VWS V12.07,2013-03-17 12:23:00,
2013-03-17 07:24:00,-8.2,-14.2,30.28,NW,304,0.0,1.0,74,0.00,,CLR,0.00,VWS V12.07,2013-03-17 12:24:00,
2013-03-17 07:26:00,-8.2,-14.2,30.28,NW,304,0.0,1.0,74,0.00,,CLR,0.00,VWS V12.07,2013-03-17 12:26:00,
2013-03-17 07:28:00,-8.4,-14.4,30.28,NW,304,0.0,1.0,74,0.00,,CLR,0.00,VWS V12.07,2013-03-17 12:28:00,
2013-03-17 07:29:00,-8.4,-14.4,30.28,NW,304,0.0,1.0,74,0.00,,CLR,0.00,VWS V12.07,2013-03-17 12:29:00,
2013-03-17 07:30:00,-6.5,-12.1,30.29,NW,304,0.0,0.0,76,0.00,,CLR,0.00,VWS V12.07,2013-03-17 12:30:00,
2013-03-17 07:31:00,-8.4,-14.4,30.28,NW,304,0.0,1.0,74,0.00,,CLR,0.00,VWS V12.07,2013-03-17 12:31:00,
2013-03-17 07:32:00,-8.4,-14.4,30.28,NW,304,0.0,1.0,74,0.00,,CLR,0.00,VWS V12.07,2013-03-17 12:32:00,
2013-03-17 07:33:00,-8.4,-14.4,30.28,NW,304,0.0,1.0,74,0.00,,CLR,0.00,VWS V12.07,2013-03-17 12:33:00,
2013-03-17 07:35:00,-8.4,-14.4,30.28,NW,304,0.0,1.0,74,0.00,,CLR,0.00,VWS V12.07,2013-03-17 12:35:00,
2013-03-17 07:37:00,-8.4,-14.4,30.28,NW,304,0.0,1.0,74,0.00,,CLR,0.00,VWS V12.07,2013-03-17 12:37:00,
2013-03-17 07:38:00,-8.4,-14.4,30.28,NW,304,0.0,1.0,74,0.00,,CLR,0.00,VWS V12.07,2013-03-17 12:38:00,
2013-03-17 07:40:00,-8.4,-14.4,30.28,NW,304,0.0,1.0,74,0.00,,CLR,0.00,VWS V12.07,2013-03-17 12:40:00,
2013-03-17 07:42:00,-8.6,-14.6,30.28,NW,304,0.0,1.0,74,0.00,,CLR,0.00,VWS V12.07,2013-03-17 12:42:00,
2013-03-17 07:43:00,-8.6,-14.9,30.28,NW,304,0.0,1.0,73,0.00,,CLR,0.00,VWS V12.07,2013-03-17 12:43:00,
2013-03-17 07:44:00,-8.6,-14.6,30.28,NW,304,0.0,1.0,74,0.00,,CLR,0.00,VWS V12.07,2013-03-17 12:44:00,
2013-03-17 07:45:00,-8.6,-14.6,30.29,NW,304,0.0,1.0,74,0.00,,CLR,0.00,VWS V12.07,2013-03-17 12:45:00,
2013-03-17 07:48:00,-8.6,-14.6,30.29,NW,304,0.0,1.0,74,0.00,,CLR,0.00,VWS V12.07,2013-03-17 12:48:00,
2013-03-17 07:49:00,-8.6,-14.6,30.29,NW,304,0.0,1.0,74,0.00,,CLR,0.00,VWS V12.07,2013-03-17 12:49:00,
2013-03-17 07:50:00,-8.4,-14.7,30.29,NW,304,0.0,1.0,73,0.00,,CLR,0.00,VWS V12.07,2013-03-17 12:50:00,
2013-03-17 07:53:00,-8.4,-14.7,30.29,NW,304,0.0,1.0,73,0.00,,CLR,0.00,VWS V12.07,2013-03-17 12:53:00,
2013-03-17 07:54:00,-8.6,-14.9,30.29,NW,304,0.0,1.0,73,0.00,,CLR,0.00,VWS V12.07,2013-03-17 12:54:00,
2013-03-17 07:55:00,-8.4,-14.7,30.29,NW,304,0.0,1.0,73,0.00,,CLR,0.00,VWS V12.07,2013-03-17 12:55:00,
2013-03-17 07:58:00,-8.4,-14.4,30.29,NW,304,0.0,1.0,74,0.00,,CLR,0.00,VWS V12.07,2013-03-17 12:58:00,
2013-03-17 07:59:00,-8.4,-14.4,30.29,NW,304,0.0,1.0,74,0.00,,CLR,0.00,VWS V12.07,2013-03-17 12:59:00,
2013-03-17 08:00:00,-8.4,-14.4,30.29,NW,304,0.0,1.0,74,0.00,,CLR,0.00,VWS V12.07,2013-03-17 13:00:00,
2013-03-17 08:03:00,-8.2,-14.2,30.29,NW,304,0.0,1.0,74,0.00,,CLR,0.00,VWS V12.07,2013-03-17 13:03:00,
2013-03-17 08:04:00,-7.9,-14.0,30.29,NW,304,0.0,1.0,74,0.00,,CLR,0.00,VWS V12.07,2013-03-17 13:04:00,
2013-03-17 08:05:00,-7.9,-14.0,30.29,NW,304,0.0,1.0,74,0.00,,CLR,0.00,VWS V12.07,2013-03-17 13:05:00,
2013-03-17 08:06:00,-7.9,-14.0,30.29,NW,304,0.0,1.0,74,0.00,,CLR,0.00,VWS V12.07,2013-03-17 13:06:00,
2013-03-17 08:09:00,-7.5,-13.3,30.29,NW,304,0.0,1.0,75,0.00,,CLR,0.00,VWS V12.07,2013-03-17 13:09:00,
2013-03-17 08:10:00,-7.5,-13.3,30.29,NW,304,0.0,1.0,75,0.00,,CLR,0.00,VWS V12.07,2013-03-17 13:10:00,
2013-03-17 08:11:00,-7.2,-13.0,30.29,NW,304,0.0,1.0,75,0.00,,CLR,0.00,VWS V12.07,2013-03-17 13:11:00,
2013-03-17 08:14:00,-6.8,-12.4,30.29,NW,304,0.0,1.0,76,0.00,,CLR,0.00,VWS V12.07,2013-03-17 13:14:00,
2013-03-17 08:15:00,-6.5,-12.1,30.29,NW,304,0.0,1.0,76,0.00,,CLR,0.00,VWS V12.07,2013-03-17 13:15:00,
2013-03-17 08:17:00,-6.3,-11.9,30.29,NW,304,0.0,1.0,76,0.00,,CLR,0.00,VWS V12.07,2013-03-17 13:17:00,
2013-03-17 08:19:00,-5.9,-11.5,30.29,NW,304,0.0,1.0,76,0.00,,CLR,0.00,VWS V12.07,2013-03-17 13:19:00,
2013-03-17 08:20:00,-5.6,-11.2,30.29,NW,304,0.0,1.0,76,0.00,,CLR,0.00,VWS V12.07,2013-03-17 13:20:00,
2013-03-17 08:22:00,-5.2,-10.8,30.29,NW,304,0.0,1.0,76,0.00,,CLR,0.00,VWS V12.07,2013-03-17 13:22:00,
2013-03-17 08:25:00,-4.8,-10.1,30.29,NW,304,0.0,1.0,77,0.00,,CLR,0.00,VWS V12.07,2013-03-17 13:25:00,
2013-03-17 08:27:00,-4.3,-9.9,30.29,NW,304,0.0,1.0,76,0.00,,CLR,0.00,VWS V12.07,2013-03-17 13:27:00,
2013-03-17 08:30:00,-3.9,-9.5,30.29,NW,304,0.0,1.0,76,0.00,,CLR,0.00,VWS V12.07,2013-03-17 13:30:00,
2013-03-17 08:31:00,-3.7,-9.4,30.29,NW,304,0.0,1.0,76,0.00,,CLR,0.00,VWS V12.07,2013-03-17 13:31:00,
2013-03-17 08:33:00,-3.3,-9.0,30.29,NW,304,0.0,1.0,76,0.00,,CLR,0.00,VWS V12.07,2013-03-17 13:33:00,
2013-03-17 08:35:00,-2.8,-8.2,30.29,NW,308,0.0,1.0,77,0.00,,CLR,0.00,VWS V12.07,2013-03-17 13:35:00,
2013-03-17 08:36:00,-2.4,-7.6,30.29,NW,308,0.0,1.0,78,0.00,,CLR,0.00,VWS V12.07,2013-03-17 13:36:00,
2013-03-17 08:37:00,-2.2,-7.4,30.29,NW,308,0.0,1.0,78,0.00,,CLR,0.00,VWS V12.07,2013-03-17 13:37:00,
2013-03-17 08:38:00,-2.0,-7.2,30.29,NW,308,0.0,1.0,78,0.00,,CLR,0.00,VWS V12.07,2013-03-17 13:38:00,
2013-03-17 08:40:00,-1.2,-6.1,30.29,NW,308,0.0,1.0,79,0.00,,CLR,0.00,VWS V12.07,2013-03-17 13:40:00,
2013-03-17 08:41:00,-1.0,-5.9,30.29,NW,308,0.0,1.0,79,0.00,,CLR,0.00,VWS V12.07,2013-03-17 13:41:00,
2013-03-17 08:42:00,-0.8,-5.7,30.29,NW,308,0.0,1.0,79,0.00,,CLR,0.00,VWS V12.07,2013-03-17 13:42:00,
2013-03-17 08:43:00,-0.4,-5.6,30.29,NW,308,0.0,1.0,78,0.00,,CLR,0.00,VWS V12.07,2013-03-17 13:43:00,
2013-03-17 08:45:00,0.1,-5.1,30.28,NW,308,0.0,1.0,78,0.00,,CLR,0.00,VWS V12.07,2013-03-17 13:45:00,
2013-03-17 08:46:00,0.3,-5.2,30.28,ESE,108,0.0,2.0,77,0.00,,CLR,0.00,VWS V12.07,2013-03-17 13:46:00,
2013-03-17 08:47:00,0.5,-5.3,30.28,North,9,1.0,2.0,76,0.00,,CLR,0.00,VWS V12.07,2013-03-17 13:47:00,
2013-03-17 08:48:00,0.9,-4.9,30.28,North,9,0.0,2.0,76,0.00,,CLR,0.00,VWS V12.07,2013-03-17 13:48:00,
2013-03-17 08:50:00,7.2,-0.8,30.26,NNE,21,0.0,7.0,69,0.00,,CLR,0.00,VWS V12.07,2013-03-17 13:50:00,
2013-03-17 08:51:00,1.3,-4.5,30.28,North,9,0.0,2.0,76,0.00,,CLR,0.00,VWS V12.07,2013-03-17 13:51:00,
2013-03-17 08:52:00,1.5,-4.6,30.28,North,9,0.0,2.0,75,0.00,,CLR,0.00,VWS V12.07,2013-03-17 13:52:00,
2013-03-17 08:53:00,1.5,-4.6,30.28,North,9,0.0,2.0,75,0.00,,CLR,0.00,VWS V12.07,2013-03-17 13:53:00,
2013-03-17 08:54:00,1.8,-4.3,30.28,North,9,0.0,2.0,75,0.00,,CLR,0.00,VWS V12.07,2013-03-17 13:54:00,
2013-03-17 08:57:00,2.6,-3.2,30.28,ESE,111,0.0,2.0,76,0.00,,CLR,0.00,VWS V12.07,2013-03-17 13:57:00,
2013-03-17 08:58:00,3.0,-2.8,30.28,ESE,111,0.0,2.0,76,0.00,,CLR,0.00,VWS V12.07,2013-03-17 13:58:00,
2013-03-17 08:59:00,3.4,-2.7,30.28,ESE,111,0.0,2.0,75,0.00,,CLR,0.00,VWS V12.07,2013-03-17 13:59:00,
2013-03-17 09:00:00,8.4,-0.6,30.26,ESE,110,0.0,9.0,66,0.00,,CLR,0.00,VWS V12.07,2013-03-17 14:00:00,
2013-03-17 09:02:00,3.9,-2.8,30.28,ENE,75,0.0,4.0,73,0.00,,CLR,0.00,VWS V12.07,2013-03-17 14:02:00,
2013-03-17 09:03:00,4.1,-2.6,30.28,ENE,75,0.0,4.0,73,0.00,,CLR,0.00,VWS V12.07,2013-03-17 14:03:00,
2013-03-17 09:04:00,4.3,-2.4,30.28,ENE,75,1.0,4.0,73,0.00,,CLR,0.00,VWS V12.07,2013-03-17 14:04:00,
2013-03-17 09:07:00,4.8,-2.2,30.28,ESE,107,2.0,3.0,72,0.00,,CLR,0.00,VWS V12.07,2013-03-17 14:07:00,
2013-03-17 09:09:00,4.8,-2.8,30.28,SE,132,0.0,3.0,70,0.00,,CLR,0.00,VWS V12.07,2013-03-17 14:09:00,
2013-03-17 09:10:00,9.2,-0.8,30.26,SE,139,0.0,6.0,63,0.00,,CLR,0.00,VWS V12.07,2013-03-17 14:10:00,
2013-03-17 09:12:00,5.0,-2.6,30.28,SE,127,0.0,3.0,70,0.00,,CLR,0.00,VWS V12.07,2013-03-17 14:12:00,
2013-03-17 09:13:00,5.0,-2.6,30.28,SE,127,2.0,3.0,70,0.00,,CLR,0.00,VWS V12.07,2013-03-17 14:13:00,
2013-03-17 09:14:00,5.2,-2.4,30.28,SE,127,0.0,3.0,70,0.00,,CLR,0.00,VWS V12.07,2013-03-17 14:14:00,
2013-03-17 09:17:00,5.4,-2.5,30.27,SE,127,2.0,3.0,69,0.00,,CLR,0.00,VWS V12.07,2013-03-17 14:17:00,
2013-03-17 09:18:00,5.2,-2.7,30.27,SE,127,0.0,3.0,69,0.00,,CLR,0.00,VWS V12.07,2013-03-17 14:18:00,
2013-03-17 09:19:00,5.4,-2.5,30.27,SE,127,0.0,3.0,69,0.00,,CLR,0.00,VWS V12.07,2013-03-17 14:19:00,
2013-03-17 09:20:00,5.4,-2.8,30.27,SE,127,0.0,3.0,68,0.00,,CLR,0.00,VWS V12.07,2013-03-17 14:20:00,
2013-03-17 09:23:00,5.6,-2.3,30.27,NE,39,0.0,3.0,69,0.00,,CLR,0.00,VWS V12.07,2013-03-17 14:23:00,
2013-03-17 09:25:00,5.8,-2.2,30.27,SE,141,2.0,3.0,69,0.00,,CLR,0.00,VWS V12.07,2013-03-17 14:25:00,
2013-03-17 09:28:00,6.1,-2.2,30.27,SSE,161,0.0,4.0,68,0.00,,CLR,0.00,VWS V12.07,2013-03-17 14:28:00,
2013-03-17 09:29:00,6.1,-2.2,30.27,SSE,158,0.0,4.0,68,0.00,,CLR,0.00,VWS V12.07,2013-03-17 14:29:00,
2013-03-17 09:30:00,6.3,-1.7,30.26,SSE,158,0.0,4.0,69,0.00,,CLR,0.00,VWS V12.07,2013-03-17 14:30:00,
2013-03-17 09:31:00,6.5,-1.5,30.26,South,181,1.0,4.0,69,0.00,,CLR,0.00,VWS V12.07,2013-03-17 14:31:00,
2013-03-17 09:33:00,6.9,-1.1,30.26,SSE,161,1.0,4.0,69,0.00,,CLR,0.00,VWS V12.07,2013-03-17 14:33:00,
2013-03-17 09:34:00,7.0,-1.0,30.26,ENE,63,2.0,4.0,69,0.00,,CLR,0.00,VWS V12.07,2013-03-17 14:34:00,
2013-03-17 09:35:00,7.4,-0.6,30.26,NNE,21,0.0,7.0,69,0.00,,CLR,0.00,VWS V12.07,2013-03-17 14:35:00,
2013-03-17 09:36:00,7.6,-0.7,30.26,SE,144,3.0,7.0,68,0.00,,CLR,0.00,VWS V12.07,2013-03-17 14:36:00,
2013-03-17 09:38:00,7.9,-0.4,30.26,ESE,108,1.0,7.0,68,0.00,,CLR,0.00,VWS V12.07,2013-03-17 14:38:00,
2013-03-17 09:39:00,8.1,-0.6,30.26,SE,134,0.0,7.0,67,0.00,,CLR,0.00,VWS V12.07,2013-03-17 14:39:00,
2013-03-17 09:40:00,8.1,-0.6,30.26,ENE,60,0.0,7.0,67,0.00,,CLR,0.00,VWS V12.07,2013-03-17 14:40:00,
2013-03-17 09:42:00,8.3,-0.4,30.26,SE,136,4.0,7.0,67,0.00,,CLR,0.00,VWS V12.07,2013-03-17 14:42:00,
2013-03-17 09:43:00,8.4,-0.9,30.26,SSE,152,3.0,9.0,65,0.00,,CLR,0.00,VWS V12.07,2013-03-17 14:43:00,
2013-03-17 09:44:00,8.4,-0.9,30.26,ESE,108,1.0,9.0,65,0.00,,CLR,0.00,VWS V12.07,2013-03-17 14:44:00,
2013-03-17 09:45:00,8.6,-0.4,30.26,ESE,112,2.0,9.0,66,0.00,,CLR,0.00,VWS V12.07,2013-03-17 14:45:00,
2013-03-17 09:47:00,8.8,-0.6,30.26,SE,124,3.0,9.0,65,0.00,,CLR,0.00,VWS V12.07,2013-03-17 14:47:00,
2013-03-17 09:49:00,9.0,-0.7,30.26,SSE,165,0.0,9.0,64,0.00,,CLR,0.00,VWS V12.07,2013-03-17 14:49:00,
2013-03-17 09:50:00,9.2,-0.5,30.26,NNE,25,0.0,9.0,64,0.00,,CLR,0.00,VWS V12.07,2013-03-17 14:50:00,
2013-03-17 09:52:00,9.3,-0.7,30.26,SSE,150,3.0,9.0,63,0.00,,CLR,0.00,VWS V12.07,2013-03-17 14:52:00,
2013-03-17 09:54:00,9.2,-0.8,30.26,SSE,154,2.0,6.0,63,0.00,,CLR,0.00,VWS V12.07,2013-03-17 14:54:00,
2013-03-17 09:55:00,9.2,-0.8,30.26,SE,139,0.0,6.0,63,0.00,,CLR,0.00,VWS V12.07,2013-03-17 14:55:00,
2013-03-17 09:56:00,9.2,-0.8,30.26,SE,137,1.0,6.0,63,0.00,,CLR,0.00,VWS V12.07,2013-03-17 14:56:00,
2013-03-17 09:57:00,9.2,-1.2,30.26,East,96,3.0,9.0,62,0.00,,CLR,0.00,VWS V12.07,2013-03-17 14:57:00,
2013-03-17 10:00:00,9.3,-1.1,30.27,East,81,2.0,9.0,62,0.00,,CLR,0.00,VWS V12.07,2013-03-17 15:00:00,
2013-03-17 10:02:00,9.3,-1.1,30.27,ESE,111,0.0,9.0,62,0.00,,CLR,0.00,VWS V12.07,2013-03-17 15:02:00,
2013-03-17 10:03:00,9.5,-1.2,30.27,ESE,104,0.0,9.0,61,0.00,,CLR,0.00,VWS V12.07,2013-03-17 15:03:00,
2013-03-17 10:05:00,9.7,-1.4,30.27,NE,41,6.0,9.0,60,0.00,,CLR,0.00,VWS V12.07,2013-03-17 15:05:00,
2013-03-17 10:06:00,9.7,-1.4,30.27,NNE,33,1.0,9.0,60,0.00,,CLR,0.00,VWS V12.07,2013-03-17 15:06:00,
2013-03-17 10:07:00,9.7,-1.4,30.27,East,82,0.0,5.0,60,0.00,,CLR,0.00,VWS V12.07,2013-03-17 15:07:00,
2013-03-17 10:08:00,9.7,-1.4,30.27,NNE,20,2.0,5.0,60,0.00,,CLR,0.00,VWS V12.07,2013-03-17 15:08:00,
2013-03-17 10:10:00,9.9,-1.2,30.27,East,81,0.0,5.0,60,0.00,,CLR,0.00,VWS V12.07,2013-03-17 15:10:00,
2013-03-17 10:11:00,9.9,-1.2,30.27,NNE,32,3.0,6.0,60,0.00,,CLR,0.00,VWS V12.07,2013-03-17 15:11:00,
2013-03-17 10:12:00,10.0,-1.1,30.27,North,4,6.0,6.0,60,0.00,,CLR,0.00,VWS V12.07,2013-03-17 15:12:00,
2013-03-17 10:13:00,9.9,-1.2,30.27,NNE,30,4.0,9.0,60,0.00,,CLR,0.00,VWS V12.07,2013-03-17 15:13:00,
2013-03-17 10:15:00,10.0,-0.8,30.26,ENE,72,2.0,9.0,61,0.00,,CLR,0.00,VWS V12.07,2013-03-17 15:15:00,
2013-03-17 10:17:00,10.2,-0.9,30.26,SSW,193,2.0,9.0,60,0.00,,CLR,0.00,VWS V12.07,2013-03-17 15:17:00,
2013-03-17 10:19:00,10.2,-0.9,30.26,SE,139,2.0,9.0,60,0.00,,CLR,0.00,VWS V12.07,2013-03-17 15:19:00,
2013-03-17 10:20:00,10.0,-1.5,30.26,SSE,164,3.0,9.0,59,0.00,,CLR,0.00,VWS V12.07,2013-03-17 15:20:00,
2013-03-17 10:22:00,10.0,-1.1,30.26,SSE,157,6.0,9.0,60,0.00,,CLR,0.00,VWS V12.07,2013-03-17 15:22:00,
2013-03-17 10:24:00,9.7,-1.4,30.26,SSE,165,3.0,7.0,60,0.00,,CLR,0.00,VWS V12.07,2013-03-17 15:24:00,
2013-03-17 10:25:00,9.7,-1.4,30.26,East,92,1.0,7.0,60,0.00,,CLR,0.00,VWS V12.07,2013-03-17 15:25:00,
2013-03-17 10:27:00,9.9,-1.2,30.26,SSE,152,4.0,7.0,60,0.00,,CLR,0.00,VWS V12.07,2013-03-17 15:27:00,
2013-03-17 10:29:00,9.9,-0.9,30.27,SSE,160,4.0,7.0,61,0.00,,CLR,0.00,VWS V12.07,2013-03-17 15:29:00,
2013-03-17 10:30:00,12.3,-1.2,30.27,SSE,158,1.0,6.0,54,0.00,,CLR,0.00,VWS V12.07,2013-03-17 15:30:00,
2013-03-17 10:31:00,9.9,-1.2,30.27,SSE,147,5.0,7.0,60,0.00,,CLR,0.00,VWS V12.07,2013-03-17 15:31:00,
2013-03-17 10:32:00,9.9,-1.2,30.27,SE,139,2.0,7.0,60,0.00,,CLR,0.00,VWS V12.07,2013-03-17 15:32:00,
2013-03-17 10:34:00,10.0,-1.1,30.27,East,84,2.0,6.0,60,0.00,,CLR,0.00,VWS V12.07,2013-03-17 15:34:00,
2013-03-17 10:37:00,10.4,-1.4,30.27,East,90,2.0,6.0,58,0.00,,CLR,0.00,VWS V12.07,2013-03-17 15:37:00,
2013-03-17 10:39:00,10.7,-1.2,30.27,SE,129,0.0,6.0,58,0.00,,CLR,0.00,VWS V12.07,2013-03-17 15:39:00,
2013-03-17 10:40:00,10.7,-1.5,30.27,SSE,160,3.0,6.0,57,0.00,,CLR,0.00,VWS V12.07,2013-03-17 15:40:00,
2013-03-17 10:42:00,10.5,-1.0,30.27,SSE,155,0.0,6.0,59,0.00,,CLR,0.00,VWS V12.07,2013-03-17 15:42:00,
2013-03-17 10:43:00,10.9,-0.6,30.27,SSE,155,0.0,6.0,59,0.00,,CLR,0.00,VWS V12.07,2013-03-17 15:43:00,
2013-03-17 10:44:00,11.1,-0.8,30.27,South,176,3.0,6.0,58,0.00,,CLR,0.00,VWS V12.07,2013-03-17 15:44:00,
2013-03-17 10:45:00,11.1,-0.8,30.27,SSE,158,5.0,6.0,58,0.00,,CLR,0.00,VWS V12.07,2013-03-17 15:45:00,
2013-03-17 10:47:00,10.9,-1.0,30.27,SE,141,3.0,6.0,58,0.00,,CLR,0.00,VWS V12.07,2013-03-17 15:47:00,
2013-03-17 10:48:00,10.9,-1.3,30.27,SSE,150,5.0,6.0,57,0.00,,CLR,0.00,VWS V12.07,2013-03-17 15:48:00,
2013-03-17 10:49:00,10.9,-1.3,30.27,SSE,151,4.0,7.0,57,0.00,,CLR,0.00,VWS V12.07,2013-03-17 15:49:00,
2013-03-17 10:50:00,10.9,-1.0,30.27,SSE,150,3.0,7.0,58,0.00,,CLR,0.00,VWS V12.07,2013-03-17 15:50:00,
2013-03-17 10:52:00,11.4,-0.9,30.27,SE,136,2.0,7.0,57,0.00,,CLR,0.00,VWS V12.07,2013-03-17 15:52:00,
2013-03-17 10:53:00,11.4,-0.9,30.27,SSE,155,2.0,7.0,57,0.00,,CLR,0.00,VWS V12.07,2013-03-17 15:53:00,
2013-03-17 10:54:00,11.6,-0.3,30.27,SSE,158,4.0,7.0,58,0.00,,CLR,0.00,VWS V12.07,2013-03-17 15:54:00,
2013-03-17 10:55:00,11.7,-0.6,30.27,SSE,159,3.0,7.0,57,0.00,,CLR,0.00,VWS V12.07,2013-03-17 15:55:00,
2013-03-17 10:58:00,11.7,-0.6,30.27,SSE,159,1.0,7.0,57,0.00,,CLR,0.00,VWS V12.07,2013-03-17 15:58:00,
2013-03-17 10:59:00,11.9,-0.8,30.27,SE,133,4.0,7.0,56,0.00,,CLR,0.00,VWS V12.07,2013-03-17 15:59:00,
2013-03-17 11:00:00,13.8,-0.2,30.27,SSE,158,1.0,10.0,53,0.00,,CLR,0.00,VWS V12.07,2013-03-17 16:00:00,
2013-03-17 11:01:00,11.9,-0.8,30.27,SE,144,3.0,7.0,56,0.00,,CLR,0.00,VWS V12.07,2013-03-17 16:01:00,
2013-03-17 11:03:00,11.7,-1.0,30.27,South,181,4.0,8.0,56,0.00,,CLR,0.00,VWS V12.07,2013-03-17 16:03:00,
2013-03-17 11:04:00,11.7,-1.0,30.27,SE,142,2.0,8.0,56,0.00,,CLR,0.00,VWS V12.07,2013-03-17 16:04:00,
2013-03-17 11:06:00,11.6,-1.0,30.27,SSE,156,4.0,8.0,56,0.00,,CLR,0.00,VWS V12.07,2013-03-17 16:06:00,
2013-03-17 11:09:00,11.6,-1.0,30.27,SSE,151,0.0,6.0,56,0.00,,CLR,0.00,VWS V12.07,2013-03-17 16:09:00,
2013-03-17 11:10:00,15.1,0.2,30.27,SSE,165,3.0,5.0,51,0.00,,CLR,0.00,VWS V12.07,2013-03-17 16:10:00,
2013-03-17 11:12:00,12.1,-1.0,30.27,South,181,3.0,6.0,55,0.00,,CLR,0.00,VWS V12.07,2013-03-17 16:12:00,
2013-03-17 11:14:00,12.1,-1.0,30.27,ESE,103,2.0,6.0,55,0.00,,CLR,0.00,VWS V12.07,2013-03-17 16:14:00,
2013-03-17 11:17:00,12.3,-1.2,30.27,SSE,148,3.0,6.0,54,0.00,,CLR,0.00,VWS V12.07,2013-03-17 16:17:00,
2013-03-17 11:19:00,12.3,-1.2,30.27,SSE,159,5.0,6.0,54,0.00,,CLR,0.00,VWS V12.07,2013-03-17 16:19:00,
2013-03-17 11:20:00,12.1,-1.7,30.27,SSE,147,5.0,10.0,53,0.00,,CLR,0.00,VWS V12.07,2013-03-17 16:20:00,
2013-03-17 11:22:00,11.9,-1.5,30.27,SSE,158,1.0,11.0,54,0.00,,CLR,0.00,VWS V12.07,2013-03-17 16:22:00,
2013-03-17 11:24:00,12.1,-1.7,30.27,SSE,150,5.0,11.0,53,0.00,,CLR,0.00,VWS V12.07,2013-03-17 16:24:00,
2013-03-17 11:25:00,11.9,-1.9,30.27,SSE,148,5.0,11.0,53,0.00,,CLR,0.00,VWS V12.07,2013-03-17 16:25:00,
2013-03-17 11:28:00,11.9,-1.5,30.27,SSE,160,5.0,11.0,54,0.00,,CLR,0.00,VWS V12.07,2013-03-17 16:28:00,
2013-03-17 11:29:00,12.3,-0.8,30.27,SSE,167,6.0,11.0,55,0.00,,CLR,0.00,VWS V12.07,2013-03-17 16:29:00,
2013-03-17 11:30:00,12.3,-2.0,30.27,SSE,148,6.0,11.0,52,0.00,,CLR,0.00,VWS V12.07,2013-03-17 16:30:00,
2013-03-17 11:31:00,12.3,-2.0,30.27,SSE,155,6.0,11.0,52,0.00,,CLR,0.00,VWS V12.07,2013-03-17 16:31:00,
2013-03-17 11:33:00,12.4,-1.1,30.27,SSE,154,5.0,11.0,54,0.00,,CLR,0.00,VWS V12.07,2013-03-17 16:33:00,
2013-03-17 11:35:00,12.6,-0.9,30.27,SE,146,5.0,13.0,54,0.00,,CLR,0.00,VWS V12.07,2013-03-17 16:35:00,
2013-03-17 11:37:00,12.8,-1.1,30.27,SSE,168,6.0,13.0,53,0.00,,CLR,0.00,VWS V12.07,2013-03-17 16:37:00,
2013-03-17 11:38:00,12.6,-1.7,30.27,SSE,149,9.0,13.0,52,0.00,,CLR,0.00,VWS V12.07,2013-03-17 16:38:00,
2013-03-17 11:40:00,12.6,-1.7,30.27,SSE,151,2.0,13.0,52,0.00,,CLR,0.00,VWS V12.07,2013-03-17 16:40:00,
2013-03-17 11:42:00,13.1,-0.8,30.27,East,98,0.0,13.0,53,0.00,,CLR,0.00,VWS V12.07,2013-03-17 16:42:00,
2013-03-17 11:43:00,13.6,-1.2,30.27,South,169,4.0,13.0,51,0.00,,CLR,0.00,VWS V12.07,2013-03-17 16:43:00,
2013-03-17 11:45:00,13.8,-0.2,30.27,SSE,155,2.0,10.0,53,0.00,,CLR,0.00,VWS V12.07,2013-03-17 16:45:00,
2013-03-17 11:47:00,13.8,-1.0,30.27,SSE,164,2.0,10.0,51,0.00,,CLR,0.00,VWS V12.07,2013-03-17 16:47:00,
2013-03-17 11:48:00,13.8,-1.4,30.27,South,169,0.0,10.0,50,0.00,,CLR,0.00,VWS V12.07,2013-03-17 16:48:00,
2013-03-17 11:50:00,14.0,-0.8,30.27,SSE,160,3.0,10.0,51,0.00,,CLR,0.00,VWS V12.07,2013-03-17 16:50:00,
2013-03-17 11:52:00,14.3,-0.1,30.27,South,170,0.0,10.0,52,0.00,,CLR,0.00,VWS V12.07,2013-03-17 16:52:00,
2013-03-17 11:53:00,14.8,0.4,30.27,South,170,2.0,5.0,52,0.00,,CLR,0.00,VWS V12.07,2013-03-17 16:53:00,
2013-03-17 11:55:00,15.1,0.2,30.27,SE,141,5.0,5.0,51,0.00,,CLR,0.00,VWS V12.07,2013-03-17 16:55:00,
2013-03-17 11:57:00,14.9,-0.4,30.27,SE,146,4.0,5.0,50,0.00,,CLR,0.00,VWS V12.07,2013-03-17 16:57:00,
2013-03-17 11:59:00,14.9,-0.8,30.27,SSE,167,0.0,9.0,49,0.00,,CLR,0.00,VWS V12.07,2013-03-17 16:59:00,
2013-03-17 12:00:00,15.4,1.3,30.25,SSE,158,2.0,9.0,53,0.00,,CLR,0.00,VWS V12.07,2013-03-17 17:00:00,
2013-03-17 12:02:00,15.7,0.8,30.25,South,178,1.0,9.0,51,0.00,,CLR,0.00,VWS V12.07,2013-03-17 17:02:00,
2013-03-17 12:03:00,15.7,0.8,30.25,South,181,2.0,9.0,51,0.00,,CLR,0.00,VWS V12.07,2013-03-17 17:03:00,
2013-03-17 12:04:00,15.6,-1.0,30.25,SSW,206,3.0,9.0,47,0.00,,CLR,0.00,VWS V12.07,2013-03-17 17:04:00,
2013-03-17 12:06:00,15.9,0.6,30.25,SE,140,2.0,9.0,50,0.00,,CLR,0.00,VWS V12.07,2013-03-17 17:06:00,
2013-03-17 12:07:00,16.2,0.8,30.25,SSE,150,1.0,3.0,50,0.00,,CLR,0.00,VWS V12.07,2013-03-17 17:07:00,
2013-03-17 12:08:00,16.2,0.8,30.25,SSE,151,1.0,3.0,50,0.00,,CLR,0.00,VWS V12.07,2013-03-17 17:08:00,
2013-03-17 12:09:00,16.4,1.5,30.25,SSE,153,2.0,3.0,51,0.00,,CLR,0.00,VWS V12.07,2013-03-17 17:09:00,
2013-03-17 12:10:00,18.4,0.1,30.24,South,174,1.0,6.0,44,0.00,,CLR,0.00,VWS V12.07,2013-03-17 17:10:00,
2013-03-17 12:12:00,16.5,0.7,30.25,SSE,150,2.0,3.0,49,0.00,,CLR,0.00,VWS V12.07,2013-03-17 17:12:00,
2013-03-17 12:13:00,16.5,1.5,30.25,SSE,153,10.0,10.0,51,0.00,,CLR,0.00,VWS V12.07,2013-03-17 17:13:00,
2013-03-17 12:14:00,16.1,-1.5,30.26,ESE,118,3.0,12.0,45,0.00,,CLR,0.00,VWS V12.07,2013-03-17 17:14:00,
2013-03-17 12:17:00,16.1,-1.0,30.26,SSE,161,4.0,12.0,46,0.00,,CLR,0.00,VWS V12.07,2013-03-17 17:17:00,
2013-03-17 12:18:00,15.7,-1.9,30.26,SSE,157,3.0,13.0,45,0.00,,CLR,0.00,VWS V12.07,2013-03-17 17:18:00,
2013-03-17 12:19:00,15.7,-1.4,30.26,SE,146,6.0,13.0,46,0.00,,CLR,0.00,VWS V12.07,2013-03-17 17:19:00,
2013-03-17 12:20:00,18.9,-0.4,30.24,SSW,197,2.0,11.0,42,0.00,,CLR,0.00,VWS V12.07,2013-03-17 17:20:00,
2013-03-17 12:22:00,15.6,-2.0,30.26,SSW,201,1.0,13.0,45,0.00,,CLR,0.00,VWS V12.07,2013-03-17 17:22:00,
2013-03-17 12:23:00,15.9,-1.2,30.26,SE,141,1.0,13.0,46,0.00,,CLR,0.00,VWS V12.07,2013-03-17 17:23:00,
2013-03-17 12:24:00,15.9,-2.2,30.26,SE,141,2.0,13.0,44,0.00,,CLR,0.00,VWS V12.07,2013-03-17 17:24:00,
2013-03-17 12:25:00,16.2,-0.5,30.26,SE,142,3.0,13.0,47,0.00,,CLR,0.00,VWS V12.07,2013-03-17 17:25:00,
2013-03-17 12:27:00,16.7,0.0,30.26,SSE,153,2.0,13.0,47,0.00,,CLR,0.00,VWS V12.07,2013-03-17 17:27:00,
2013-03-17 12:29:00,17.0,-0.2,30.26,SSE,153,1.0,13.0,46,0.00,,CLR,0.00,VWS V12.07,2013-03-17 17:29:00,
2013-03-17 12:30:00,17.2,0.9,30.25,SE,139,6.0,13.0,48,0.00,,CLR,0.00,VWS V12.07,2013-03-17 17:30:00,
2013-03-17 12:32:00,16.5,-1.1,30.25,SSE,155,2.0,13.0,45,0.00,,CLR,0.00,VWS V12.07,2013-03-17 17:32:00,
2013-03-17 12:34:00,16.4,-1.2,30.25,SSE,158,5.0,10.0,45,0.00,,CLR,0.00,VWS V12.07,2013-03-17 17:34:00,
2013-03-17 12:35:00,16.2,-0.9,30.25,SSE,154,3.0,10.0,46,0.00,,CLR,0.00,VWS V12.07,2013-03-17 17:35:00,
2013-03-17 12:38:00,16.1,-2.0,30.25,SSE,148,5.0,10.0,44,0.00,,CLR,0.00,VWS V12.07,2013-03-17 17:38:00,
2013-03-17 12:39:00,16.2,0.0,30.25,SSE,151,6.0,10.0,48,0.00,,CLR,0.00,VWS V12.07,2013-03-17 17:39:00,
2013-03-17 12:40:00,16.2,-1.9,30.25,SSE,150,0.0,10.0,44,0.00,,CLR,0.00,VWS V12.07,2013-03-17 17:40:00,
2013-03-17 12:43:00,16.5,-1.1,30.25,SE,139,2.0,10.0,45,0.00,,CLR,0.00,VWS V12.07,2013-03-17 17:43:00,
2013-03-17 12:44:00,17.0,0.3,30.24,SE,129,2.0,9.0,47,0.00,,CLR,0.00,VWS V12.07,2013-03-17 17:44:00,
2013-03-17 12:45:00,17.0,-0.2,30.24,SE,138,5.0,9.0,46,0.00,,CLR,0.00,VWS V12.07,2013-03-17 17:45:00,
2013-03-17 12:48:00,17.7,0.9,30.24,SSW,206,3.0,9.0,47,0.00,,CLR,0.00,VWS V12.07,2013-03-17 17:48:00,
2013-03-17 12:50:00,17.8,-1.4,30.24,SSW,210,2.0,9.0,42,0.00,,CLR,0.00,VWS V12.07,2013-03-17 17:50:00,
2013-03-17 12:53:00,18.3,-0.9,30.24,SSW,210,2.0,9.0,42,0.00,,CLR,0.00,VWS V12.07,2013-03-17 17:53:00,
2013-03-17 12:55:00,18.4,1.1,30.24,SSE,155,5.0,6.0,46,0.00,,CLR,0.00,VWS V12.07,2013-03-17 17:55:00,
2013-03-17 12:56:00,18.4,1.1,30.24,SSE,150,4.0,6.0,46,0.00,,CLR,0.00,VWS V12.07,2013-03-17 17:56:00,
2013-03-17 12:57:00,18.4,0.6,30.24,SSE,157,1.0,6.0,45,0.00,,CLR,0.00,VWS V12.07,2013-03-17 17:57:00,
2013-03-17 12:58:00,18.4,0.1,30.24,SSE,155,2.0,6.0,44,0.00,,CLR,0.00,VWS V12.07,2013-03-17 17:58:00,
2013-03-17 13:00:00,18.8,1.0,30.24,SSE,149,2.0,6.0,45,0.00,,CLR,0.00,VWS V12.07,2013-03-17 18:00:00,
2013-03-17 13:01:00,18.8,1.0,30.24,SSE,150,2.0,6.0,45,0.00,,CLR,0.00,VWS V12.07,2013-03-17 18:01:00,
2013-03-17 13:02:00,18.9,2.0,30.24,SSW,206,4.0,6.0,47,0.00,,CLR,0.00,VWS V12.07,2013-03-17 18:02:00,
2013-03-17 13:04:00,19.2,1.4,30.24,SSE,155,11.0,11.0,45,0.00,,CLR,0.00,VWS V12.07,2013-03-17 18:04:00,
2013-03-17 13:05:00,18.9,-0.9,30.24,SE,143,2.0,11.0,41,0.00,,CLR,0.00,VWS V12.07,2013-03-17 18:05:00,
2013-03-17 13:06:00,18.8,-0.5,30.24,SE,143,2.0,11.0,42,0.00,,CLR,0.00,VWS V12.07,2013-03-17 18:06:00,
2013-03-17 13:07:00,18.8,-0.5,30.24,SSE,155,1.0,0.0,42,0.00,,CLR,0.00,VWS V12.07,2013-03-17 18:07:00,
2013-03-17 13:09:00,18.8,0.5,30.24,SSE,163,2.0,7.0,44,0.00,,CLR,0.00,VWS V12.07,2013-03-17 18:09:00,
2013-03-17 13:10:00,20.8,-0.2,30.21,SSW,203,3.0,9.0,39,0.00,,CLR,0.00,VWS V12.07,2013-03-17 18:10:00,
2013-03-17 13:11:00,19.1,1.3,30.24,South,190,3.0,7.0,45,0.00,,CLR,0.00,VWS V12.07,2013-03-17 18:11:00,
2013-03-17 13:12:00,19.1,1.3,30.24,South,190,1.0,7.0,45,0.00,,CLR,0.00,VWS V12.07,2013-03-17 18:12:00,
2013-03-17 13:14:00,19.2,-0.6,30.24,SSW,198,2.0,7.0,41,0.00,,CLR,0.00,VWS V12.07,2013-03-17 18:14:00,
2013-03-17 13:16:00,19.2,-0.6,30.24,SSE,160,3.0,10.0,41,0.00,,CLR,0.00,VWS V12.07,2013-03-17 18:16:00,
2013-03-17 13:17:00,19.2,-0.6,30.24,SSE,160,1.0,10.0,41,0.00,,CLR,0.00,VWS V12.07,2013-03-17 18:17:00,
2013-03-17 13:19:00,18.9,-2.5,30.24,SE,141,3.0,10.0,38,0.00,,CLR,0.00,VWS V12.07,2013-03-17 18:19:00,
2013-03-17 13:20:00,21.8,0.7,30.22,SE,132,1.0,5.0,39,0.00,,CLR,0.00,VWS V12.07,2013-03-17 18:20:00,
2013-03-17 13:22:00,18.9,-1.4,30.24,SSW,203,3.0,10.0,40,0.00,,CLR,0.00,VWS V12.07,2013-03-17 18:22:00,
2013-03-17 13:23:00,19.1,-0.7,30.24,SW,218,4.0,10.0,41,0.00,,CLR,0.00,VWS V12.07,2013-03-17 18:23:00,
2013-03-17 13:24:00,19.2,-0.1,30.24,SSW,196,1.0,10.0,42,0.00,,CLR,0.00,VWS V12.07,2013-03-17 18:24:00,
2013-03-17 13:27:00,19.5,1.6,30.24,SE,142,5.0,10.0,45,0.00,,CLR,0.00,VWS V12.07,2013-03-17 18:27:00,
2013-03-17 13:28:00,19.7,2.8,30.24,SSE,167,3.0,10.0,47,0.00,,CLR,0.00,VWS V12.07,2013-03-17 18:28:00,
2013-03-17 13:29:00,20.0,1.6,30.22,South,183,1.0,10.0,44,0.00,,CLR,0.00,VWS V12.07,2013-03-17 18:29:00,
2013-03-17 13:30:00,21.1,-1.7,30.20,SE,133,2.0,4.0,36,0.00,,CLR,0.00,VWS V12.07,2013-03-17 18:30:00,
2013-03-17 13:32:00,20.3,0.4,30.22,SSE,149,3.0,10.0,41,0.00,,CLR,0.00,VWS V12.07,2013-03-17 18:32:00,
2013-03-17 13:33:00,20.2,-0.8,30.22,SE,141,4.0,10.0,39,0.00,,CLR,0.00,VWS V12.07,2013-03-17 18:33:00,
2013-03-17 13:35:00,19.7,-1.8,30.22,SSE,165,6.0,10.0,38,0.00,,CLR,0.00,VWS V12.07,2013-03-17 18:35:00,
2013-03-17 13:37:00,19.5,-0.4,30.22,SW,214,1.0,7.0,41,0.00,,CLR,0.00,VWS V12.07,2013-03-17 18:37:00,
2013-03-17 13:38:00,19.5,-0.4,30.22,SW,214,2.0,7.0,41,0.00,,CLR,0.00,VWS V12.07,2013-03-17 18:38:00,
2013-03-17 13:40:00,20.0,1.1,30.22,SSE,157,3.0,8.0,43,0.00,,CLR,0.00,VWS V12.07,2013-03-17 18:40:00,
2013-03-17 13:42:00,20.0,1.6,30.22,South,169,3.0,9.0,44,0.00,,CLR,0.00,VWS V12.07,2013-03-17 18:42:00,
2013-03-17 13:43:00,20.0,1.6,30.22,SSE,150,4.0,9.0,44,0.00,,CLR,0.00,VWS V12.07,2013-03-17 18:43:00,
2013-03-17 13:44:00,20.0,1.6,30.22,South,173,1.0,9.0,44,0.00,,CLR,0.00,VWS V12.07,2013-03-17 18:44:00,
2013-03-17 13:45:00,20.3,2.4,30.21,South,169,2.0,9.0,45,0.00,,CLR,0.00,VWS V12.07,2013-03-17 18:45:00,
2013-03-17 13:48:00,20.5,-0.5,30.21,SSE,153,2.0,9.0,39,0.00,,CLR,0.00,VWS V12.07,2013-03-17 18:48:00,
2013-03-17 13:49:00,20.2,-0.2,30.21,SE,145,2.0,9.0,40,0.00,,CLR,0.00,VWS V12.07,2013-03-17 18:49:00,
2013-03-17 13:50:00,20.0,-0.4,30.21,SSE,155,2.0,9.0,40,0.00,,CLR,0.00,VWS V12.07,2013-03-17 18:50:00,
2013-03-17 13:53:00,20.5,0.0,30.21,SE,137,3.0,9.0,40,0.00,,CLR,0.00,VWS V12.07,2013-03-17 18:53:00,
2013-03-17 13:54:00,20.8,1.8,30.21,SW,236,3.0,9.0,43,0.00,,CLR,0.00,VWS V12.07,2013-03-17 18:54:00,
2013-03-17 13:56:00,21.0,-0.1,30.21,SSW,207,4.0,9.0,39,0.00,,CLR,0.00,VWS V12.07,2013-03-17 18:56:00,
2013-03-17 13:58:00,21.1,0.0,30.21,SSE,158,2.0,9.0,39,0.00,,CLR,0.00,VWS V12.07,2013-03-17 18:58:00,
2013-03-17 13:59:00,21.3,1.3,30.22,SSE,168,3.0,9.0,41,0.00,,CLR,0.00,VWS V12.07,2013-03-17 18:59:00,
2013-03-17 14:00:00,23.2,0.8,30.18,SSE,160,6.0,6.0,37,0.00,,CLR,0.00,VWS V12.07,2013-03-17 19:00:00,
2013-03-17 14:01:00,21.3,-0.3,30.22,South,175,0.0,9.0,38,0.00,,CLR,0.00,VWS V12.07,2013-03-17 19:01:00,
2013-03-17 14:03:00,21.6,3.1,30.22,South,170,2.0,9.0,44,0.00,,CLR,0.00,VWS V12.07,2013-03-17 19:03:00,
2013-03-17 14:04:00,21.8,2.2,30.22,SSE,158,2.0,9.0,42,0.00,,CLR,0.00,VWS V12.07,2013-03-17 19:04:00,
2013-03-17 14:06:00,21.8,0.7,30.22,SSE,161,3.0,5.0,39,0.00,,CLR,0.00,VWS V12.07,2013-03-17 19:06:00,
2013-03-17 14:08:00,21.6,-1.2,30.22,SW,215,0.0,3.0,36,0.00,,CLR,0.00,VWS V12.07,2013-03-17 19:08:00,
2013-03-17 14:09:00,21.6,1.0,30.22,SSE,156,4.0,4.0,40,0.00,,CLR,0.00,VWS V12.07,2013-03-17 19:09:00,
2013-03-17 14:10:00,21.6,-0.1,30.22,SSE,167,2.0,4.0,38,0.00,,CLR,0.00,VWS V12.07,2013-03-17 19:10:00,
2013-03-17 14:11:00,21.4,-2.0,30.22,SSW,196,1.0,4.0,35,0.00,,CLR,0.00,VWS V12.07,2013-03-17 19:11:00,
2013-03-17 14:14:00,21.1,-1.7,30.22,SE,141,2.0,4.0,36,0.00,,CLR,0.00,VWS V12.07,2013-03-17 19:14:00,
2013-03-17 14:16:00,21.3,-1.5,30.20,SE,134,0.0,4.0,36,0.00,,CLR,0.00,VWS V12.07,2013-03-17 19:16:00,
2013-03-17 14:17:00,21.3,-1.5,30.20,SE,134,1.0,4.0,36,0.00,,CLR,0.00,VWS V12.07,2013-03-17 19:17:00,
2013-03-17 14:19:00,21.4,-2.0,30.20,South,170,2.0,6.0,35,0.00,,CLR,0.00,VWS V12.07,2013-03-17 19:19:00,
2013-03-17 14:20:00,21.4,-2.0,30.20,SSE,160,2.0,6.0,35,0.00,,CLR,0.00,VWS V12.07,2013-03-17 19:20:00,
2013-03-17 14:22:00,21.6,-1.8,30.20,SSE,159,2.0,6.0,35,0.00,,CLR,0.00,VWS V12.07,2013-03-17 19:22:00,
2013-03-17 14:24:00,21.8,0.7,30.20,SSE,148,4.0,6.0,39,0.00,,CLR,0.00,VWS V12.07,2013-03-17 19:24:00,
2013-03-17 14:25:00,21.9,1.3,30.20,SSE,163,3.0,6.0,40,0.00,,CLR,0.00,VWS V12.07,2013-03-17 19:25:00,
2013-03-17 14:27:00,22.1,-0.8,30.20,SE,139,2.0,6.0,36,0.00,,CLR,0.00,VWS V12.07,2013-03-17 19:27:00,
2013-03-17 14:28:00,22.1,0.4,30.20,SSE,167,3.0,6.0,38,0.00,,CLR,0.00,VWS V12.07,2013-03-17 19:28:00,
2013-03-17 14:29:00,22.2,2.1,30.20,SSW,202,1.0,6.0,41,0.00,,CLR,0.00,VWS V12.07,2013-03-17 19:29:00,
2013-03-17 14:30:00,22.4,2.3,30.20,South,177,2.0,6.0,41,0.00,,CLR,0.00,VWS V12.07,2013-03-17 19:30:00,
2013-03-17 14:32:00,22.4,0.1,30.20,SSE,157,3.0,6.0,37,0.00,,CLR,0.00,VWS V12.07,2013-03-17 19:32:00,
2013-03-17 14:33:00,22.4,-1.1,30.20,SSE,160,3.0,6.0,35,0.00,,CLR,0.00,VWS V12.07,2013-03-17 19:33:00,
2013-03-17 14:35:00,22.4,1.8,30.20,SSE,164,2.0,5.0,40,0.00,,CLR,0.00,VWS V12.07,2013-03-17 19:35:00,
2013-03-17 14:37:00,22.2,-0.7,30.20,SSW,193,1.0,5.0,36,0.00,,CLR,0.00,VWS V12.07,2013-03-17 19:37:00,
2013-03-17 14:38:00,22.4,0.1,30.20,SSE,165,3.0,5.0,37,0.00,,CLR,0.00,VWS V12.07,2013-03-17 19:38:00,
2013-03-17 14:40:00,22.7,2.0,30.20,South,191,2.0,5.0,40,0.00,,CLR,0.00,VWS V12.07,2013-03-17 19:40:00,
2013-03-17 14:41:00,22.7,0.9,30.20,SSW,207,0.0,5.0,38,0.00,,CLR,0.00,VWS V12.07,2013-03-17 19:41:00,
2013-03-17 14:43:00,23.0,2.8,30.20,SSE,168,1.0,5.0,41,0.00,,CLR,0.00,VWS V12.07,2013-03-17 19:43:00,
2013-03-17 14:46:00,23.2,0.8,30.18,SE,131,4.0,6.0,37,0.00,,CLR,0.00,VWS V12.07,2013-03-17 19:46:00,
2013-03-17 14:47:00,23.0,0.6,30.18,SE,139,6.0,6.0,37,0.00,,CLR,0.00,VWS V12.07,2013-03-17 19:47:00,
2013-03-17 14:48:00,23.0,2.3,30.18,SE,138,6.0,6.0,40,0.00,,CLR,0.00,VWS V12.07,2013-03-17 19:48:00,
2013-03-17 14:49:00,22.9,1.1,30.18,SSE,166,3.0,6.0,38,0.00,,CLR,0.00,VWS V12.07,2013-03-17 19:49:00,
2013-03-17 14:50:00,23.5,3.3,30.17,SSE,156,3.0,7.0,41,0.00,,CLR,0.00,VWS V12.07,2013-03-17 19:50:00,
2013-03-17 14:52:00,22.5,-0.4,30.18,South,188,2.0,6.0,36,0.00,,CLR,0.00,VWS V12.07,2013-03-17 19:52:00,
2013-03-17 14:53:00,22.5,-0.4,30.18,South,190,3.0,6.0,36,0.00,,CLR,0.00,VWS V12.07,2013-03-17 19:53:00,
2013-03-17 14:54:00,22.7,2.0,30.18,SSE,153,2.0,0.0,40,0.00,,CLR,0.00,VWS V12.07,2013-03-17 19:54:00,
2013-03-17 14:58:00,23.5,4.8,30.18,SSE,163,1.0,6.0,44,0.00,,CLR,0.00,VWS V12.07,2013-03-17 19:58:00,
2013-03-17 14:59:00,23.5,0.5,30.18,SSW,208,1.0,6.0,36,0.00,,CLR,0.00,VWS V12.07,2013-03-17 19:59:00,
2013-03-17 15:00:00,23.5,1.1,30.16,SE,139,3.0,7.0,37,0.00,,CLR,0.00,VWS V12.07,2013-03-17 20:00:00,
2013-03-17 15:03:00,23.6,2.8,30.18,SE,142,2.0,6.0,40,0.00,,CLR,0.00,VWS V12.07,2013-03-17 20:03:00,
2013-03-17 15:04:00,23.9,4.2,30.18,South,178,1.0,6.0,42,0.00,,CLR,0.00,VWS V12.07,2013-03-17 20:04:00,
2013-03-17 15:08:00,23.8,1.3,30.18,SSE,165,2.0,4.0,37,0.00,,CLR,0.00,VWS V12.07,2013-03-17 20:08:00,
2013-03-17 15:09:00,23.6,2.8,30.18,South,176,2.0,6.0,40,0.00,,CLR,0.00,VWS V12.07,2013-03-17 20:09:00,
2013-03-17 15:10:00,23.3,2.6,30.16,SSE,150,4.0,12.0,40,0.00,,CLR,0.00,VWS V12.07,2013-03-17 20:10:00,
2013-03-17 15:13:00,23.3,0.3,30.18,SE,136,5.0,10.0,36,0.00,,CLR,0.00,VWS V12.07,2013-03-17 20:13:00,
2013-03-17 15:14:00,23.2,0.2,30.18,SE,143,4.0,10.0,36,0.00,,CLR,0.00,VWS V12.07,2013-03-17 20:14:00,
2013-03-17 15:15:00,23.0,0.6,30.18,SSE,151,3.0,10.0,37,0.00,,CLR,0.00,VWS V12.07,2013-03-17 20:15:00,
2013-03-17 15:18:00,23.2,3.0,30.18,South,171,2.0,10.0,41,0.00,,CLR,0.00,VWS V12.07,2013-03-17 20:18:00,
2013-03-17 15:19:00,23.3,3.6,30.18,South,179,2.0,10.0,42,0.00,,CLR,0.00,VWS V12.07,2013-03-17 20:19:00,
2013-03-17 15:20:00,23.5,3.8,30.18,SSE,153,4.0,10.0,42,0.00,,CLR,0.00,VWS V12.07,2013-03-17 20:20:00,
2013-03-17 15:24:00,23.5,2.2,30.18,SE,137,5.0,6.0,39,0.00,,CLR,0.00,VWS V12.07,2013-03-17 20:24:00,
2013-03-17 15:25:00,23.3,0.9,30.18,SSE,161,3.0,6.0,37,0.00,,CLR,0.00,VWS V12.07,2013-03-17 20:25:00,
2013-03-17 15:26:00,23.3,0.9,30.18,SE,133,3.0,6.0,37,0.00,,CLR,0.00,VWS V12.07,2013-03-17 20:26:00,
2013-03-17 15:29:00,23.5,3.3,30.17,South,179,2.0,7.0,41,0.00,,CLR,0.00,VWS V12.07,2013-03-17 20:29:00,
2013-03-17 15:30:00,23.5,1.6,30.17,SE,140,3.0,7.0,38,0.00,,CLR,0.00,VWS V12.07,2013-03-17 20:30:00,
2013-03-17 15:31:00,23.5,-0.1,30.17,SE,144,4.0,7.0,35,0.00,,CLR,0.00,VWS V12.07,2013-03-17 20:31:00,
2013-03-17 15:35:00,23.5,1.6,30.17,SSE,165,2.0,7.0,38,0.00,,CLR,0.00,VWS V12.07,2013-03-17 20:35:00,
2013-03-17 15:36:00,23.6,1.7,30.17,SSE,150,3.0,7.0,38,0.00,,CLR,0.00,VWS V12.07,2013-03-17 20:36:00,
2013-03-17 15:40:00,23.3,3.1,30.17,South,178,1.0,7.0,41,0.00,,CLR,0.00,VWS V12.07,2013-03-17 20:40:00,
2013-03-17 15:41:00,23.3,2.0,30.17,South,181,2.0,7.0,39,0.00,,CLR,0.00,VWS V12.07,2013-03-17 20:41:00,
2013-03-17 15:45:00,23.5,1.1,30.16,SE,138,2.0,7.0,37,0.00,,CLR,0.00,VWS V12.07,2013-03-17 20:45:00,
2013-03-17 15:46:00,23.5,2.2,30.16,SSE,157,9.0,12.0,39,0.00,,CLR,0.00,VWS V12.07,2013-03-17 20:46:00,
2013-03-17 15:47:00,23.3,-0.3,30.16,South,176,5.0,12.0,35,0.00,,CLR,0.00,VWS V12.07,2013-03-17 20:47:00,
2013-03-17 15:48:00,23.3,0.3,30.16,SE,126,3.0,12.0,36,0.00,,CLR,0.00,VWS V12.07,2013-03-17 20:48:00,
2013-03-17 15:50:00,23.3,-0.9,30.16,SSE,159,2.0,12.0,34,0.00,,CLR,0.00,VWS V12.07,2013-03-17 20:50:00,
2013-03-17 15:51:00,23.5,1.1,30.16,SSE,152,3.0,12.0,37,0.00,,CLR,0.00,VWS V12.07,2013-03-17 20:51:00,
2013-03-17 15:52:00,23.5,2.2,30.16,SSE,152,2.0,12.0,39,0.00,,CLR,0.00,VWS V12.07,2013-03-17 20:52:00,
2013-03-17 15:53:00,23.3,3.1,30.16,SSE,161,3.0,12.0,41,0.00,,CLR,0.00,VWS V12.07,2013-03-17 20:53:00,
2013-03-17 15:55:00,23.3,2.6,30.16,SSE,149,3.0,12.0,40,0.00,,CLR,0.00,VWS V12.07,2013-03-17 20:55:00,
2013-03-17 15:57:00,23.2,0.2,30.16,SSE,148,6.0,12.0,36,0.00,,CLR,0.00,VWS V12.07,2013-03-17 20:57:00,
2013-03-17 15:58:00,23.2,-1.0,30.16,SSE,157,2.0,12.0,34,0.00,,CLR,0.00,VWS V12.07,2013-03-17 20:58:00,
2013-03-17 16:00:00,23.2,-0.4,30.16,SSE,150,4.0,12.0,35,0.00,,CLR,0.00,VWS V12.07,2013-03-17 21:00:00,
2013-03-17 16:02:00,23.2,0.8,30.16,SE,140,6.0,12.0,37,0.00,,CLR,0.00,VWS V12.07,2013-03-17 21:02:00,
2013-03-17 16:03:00,23.2,-0.4,30.16,SE,141,2.0,12.0,35,0.00,,CLR,0.00,VWS V12.07,2013-03-17 21:03:00,
2013-03-17 16:05:00,23.2,-1.0,30.16,SSE,154,3.0,10.0,34,0.00,,CLR,0.00,VWS V12.07,2013-03-17 21:05:00,
2013-03-17 16:08:00,23.3,-0.3,30.16,SSE,159,2.0,6.0,35,0.00,,CLR,0.00,VWS V12.07,2013-03-17 21:08:00,
2013-03-17 16:09:00,23.5,-0.1,30.16,SSE,165,2.0,6.0,35,0.00,,CLR,0.00,VWS V12.07,2013-03-17 21:09:00,
2013-03-17 16:10:00,23.8,3.0,30.16,SSW,204,3.0,6.0,40,0.00,,CLR,0.00,VWS V12.07,2013-03-17 21:10:00,
2013-03-17 16:13:00,24.1,3.3,30.16,South,186,0.0,6.0,40,0.00,,CLR,0.00,VWS V12.07,2013-03-17 21:13:00,
2013-03-17 16:14:00,24.1,3.8,30.16,SE,141,2.0,6.0,41,0.00,,CLR,0.00,VWS V12.07,2013-03-17 21:14:00,
2013-03-17 16:15:00,24.2,4.4,30.15,SE,142,2.0,6.0,42,0.00,,CLR,0.00,VWS V12.07,2013-03-17 21:15:00,
2013-03-17 16:18:00,24.2,3.9,30.15,SE,142,2.0,6.0,41,0.00,,CLR,0.00,VWS V12.07,2013-03-17 21:18:00,
2013-03-17 16:19:00,24.2,1.7,30.15,SE,143,4.0,6.0,37,0.00,,CLR,0.00,VWS V12.07,2013-03-17 21:19:00,
2013-03-17 16:20:00,24.2,1.7,30.15,SE,146,2.0,6.0,37,0.00,,CLR,0.00,VWS V12.07,2013-03-17 21:20:00,
2013-03-17 16:22:00,24.1,-0.2,30.15,SSE,148,1.0,7.0,34,0.00,,CLR,0.00,VWS V12.07,2013-03-17 21:22:00,
2013-03-17 16:23:00,24.1,0.4,30.15,South,182,0.0,7.0,35,0.00,,CLR,0.00,VWS V12.07,2013-03-17 21:23:00,
2013-03-17 16:25:00,24.1,1.0,30.15,SSE,158,2.0,7.0,36,0.00,,CLR,0.00,VWS V12.07,2013-03-17 21:25:00,
2013-03-17 16:27:00,23.9,3.6,30.15,SSE,165,1.0,7.0,41,0.00,,CLR,0.00,VWS V12.07,2013-03-17 21:27:00,
2013-03-17 16:28:00,23.8,5.1,30.15,SSE,158,7.0,7.0,44,0.00,,CLR,0.00,VWS V12.07,2013-03-17 21:28:00,
2013-03-17 16:30:00,23.8,0.2,30.14,SE,132,0.0,7.0,35,0.00,,CLR,0.00,VWS V12.07,2013-03-17 21:30:00,
2013-03-17 16:33:00,24.1,1.0,30.14,SE,132,3.0,7.0,36,0.00,,CLR,0.00,VWS V12.07,2013-03-17 21:33:00,
2013-03-17 16:35:00,24.2,-0.1,30.14,SSE,148,2.0,7.0,34,0.00,,CLR,0.00,VWS V12.07,2013-03-17 21:35:00,
2013-03-17 16:38:00,24.2,0.5,30.14,East,101,2.0,7.0,35,0.00,,CLR,0.00,VWS V12.07,2013-03-17 21:38:00,
2013-03-17 16:40:00,24.2,-2.1,30.14,East,88,1.0,7.0,31,0.00,,CLR,0.00,VWS V12.07,2013-03-17 21:40:00,
2013-03-17 16:41:00,24.2,-1.4,30.14,SE,140,2.0,7.0,32,0.00,,CLR,0.00,VWS V12.07,2013-03-17 21:41:00,
2013-03-17 16:43:00,24.2,-1.4,30.14,SE,131,6.0,7.0,32,0.00,,CLR,0.00,VWS V12.07,2013-03-17 21:43:00,
2013-03-17 16:45:00,24.1,-2.2,30.14,SE,124,3.0,8.0,31,0.00,,CLR,0.00,VWS V12.07,2013-03-17 21:45:00,
2013-03-17 16:46:00,24.1,-2.2,30.14,East,101,5.0,9.0,31,0.00,,CLR,0.00,VWS V12.07,2013-03-17 21:46:00,
2013-03-17 16:48:00,24.2,-2.1,30.14,SE,125,5.0,9.0,31,0.00,,CLR,0.00,VWS V12.07,2013-03-17 21:48:00,
2013-03-17 16:49:00,24.2,-1.4,30.14,SSE,154,4.0,10.0,32,0.00,,CLR,0.00,VWS V12.07,2013-03-17 21:49:00,
2013-03-17 16:50:00,24.1,-2.2,30.14,SSE,155,3.0,10.0,31,0.00,,CLR,0.00,VWS V12.07,2013-03-17 21:50:00,
2013-03-17 16:52:00,24.1,-0.2,30.14,SSE,155,3.0,10.0,34,0.00,,CLR,0.00,VWS V12.07,2013-03-17 21:52:00,
2013-03-17 16:53:00,23.9,-1.7,30.14,SE,136,2.0,10.0,32,0.00,,CLR,0.00,VWS V12.07,2013-03-17 21:53:00,
2013-03-17 16:54:00,23.9,-1.7,30.14,SSE,155,4.0,10.0,32,0.00,,CLR,0.00,VWS V12.07,2013-03-17 21:54:00,
2013-03-17 16:57:00,23.9,-0.4,30.14,SE,136,4.0,10.0,34,0.00,,CLR,0.00,VWS V12.07,2013-03-17 21:57:00,
2013-03-17 16:58:00,23.9,-0.4,30.14,ESE,110,1.0,10.0,34,0.00,,CLR,0.00,VWS V12.07,2013-03-17 21:58:00,
2013-03-17 17:00:00,23.9,-1.0,30.14,South,182,2.0,10.0,33,0.00,,CLR,0.00,VWS V12.07,2013-03-17 22:00:00,
2013-03-17 17:02:00,24.1,-0.8,30.14,SSE,161,0.0,10.0,33,0.00,,CLR,0.00,VWS V12.07,2013-03-17 22:02:00,
2013-03-17 17:03:00,24.1,-0.8,30.14,SSE,157,2.0,10.0,33,0.00,,CLR,0.00,VWS V12.07,2013-03-17 22:03:00,
2013-03-17 17:05:00,23.9,-1.0,30.14,SSE,147,6.0,8.0,33,0.00,,CLR,0.00,VWS V12.07,2013-03-17 22:05:00,
2013-03-17 17:07:00,23.8,-0.5,30.14,SE,139,6.0,11.0,34,0.00,,CLR,0.00,VWS V12.07,2013-03-17 22:07:00,
2013-03-17 17:08:00,23.8,0.8,30.14,ESE,122,3.0,11.0,36,0.00,,CLR,0.00,VWS V12.07,2013-03-17 22:08:00,
2013-03-17 17:10:00,23.6,-0.6,30.14,SSE,156,7.0,11.0,34,0.00,,CLR,0.00,VWS V12.07,2013-03-17 22:10:00,
2013-03-17 17:12:00,23.8,0.2,30.14,SE,144,4.0,11.0,35,0.00,,CLR,0.00,VWS V12.07,2013-03-17 22:12:00,
2013-03-17 17:13:00,23.8,0.8,30.14,SE,141,5.0,11.0,36,0.00,,CLR,0.00,VWS V12.07,2013-03-17 22:13:00,
2013-03-17 17:15:00,23.6,0.0,30.14,SE,138,7.0,11.0,35,0.00,,CLR,0.00,VWS V12.07,2013-03-17 22:15:00,
2013-03-17 17:18:00,23.8,0.8,30.14,SSE,156,4.0,11.0,36,0.00,,CLR,0.00,VWS V12.07,2013-03-17 22:18:00,
2013-03-17 17:19:00,23.8,1.3,30.14,South,180,2.0,11.0,37,0.00,,CLR,0.00,VWS V12.07,2013-03-17 22:19:00,
2013-03-17 17:20:00,23.6,0.6,30.12,SE,141,3.0,10.0,36,0.00,,BKN120,0.00,VWS V12.07,2013-03-17 22:20:00,
2013-03-17 17:21:00,23.8,3.5,30.14,SSE,163,3.0,11.0,41,0.00,,CLR,0.00,VWS V12.07,2013-03-17 22:21:00,
2013-03-17 17:23:00,23.8,3.0,30.14,SE,129,4.0,11.0,40,0.00,,CLR,0.00,VWS V12.07,2013-03-17 22:23:00,
2013-03-17 17:24:00,23.8,-0.5,30.14,South,170,2.0,11.0,34,0.00,,CLR,0.00,VWS V12.07,2013-03-17 22:24:00,
2013-03-17 17:26:00,23.8,-1.1,30.14,SSE,151,5.0,14.0,33,0.00,,CLR,0.00,VWS V12.07,2013-03-17 22:26:00,
2013-03-17 17:28:00,23.8,-1.1,30.14,SSW,195,1.0,14.0,33,0.00,,CLR,0.00,VWS V12.07,2013-03-17 22:28:00,
2013-03-17 17:29:00,23.8,-1.1,30.14,SE,135,4.0,14.0,33,0.00,,CLR,0.00,VWS V12.07,2013-03-17 22:29:00,
2013-03-17 17:30:00,23.8,-0.5,30.11,South,170,7.0,7.0,34,0.00,,BKN120,0.00,VWS V12.07,2013-03-17 22:30:00,
2013-03-17 17:31:00,23.6,1.2,30.14,SSE,147,5.0,14.0,37,0.00,,CLR,0.00,VWS V12.07,2013-03-17 22:31:00,
2013-03-17 17:33:00,23.6,0.0,30.14,SSE,161,3.0,14.0,35,0.00,,CLR,0.00,VWS V12.07,2013-03-17 22:33:00,
2013-03-17 17:34:00,23.6,0.0,30.14,SSW,195,5.0,14.0,35,0.00,,CLR,0.00,VWS V12.07,2013-03-17 22:34:00,
2013-03-17 17:35:00,23.6,0.0,30.14,South,171,2.0,14.0,35,0.00,,CLR,0.00,VWS V12.07,2013-03-17 22:35:00,
2013-03-17 17:37:00,23.6,0.0,30.14,South,179,1.0,14.0,35,0.00,,CLR,0.00,VWS V12.07,2013-03-17 22:37:00,
2013-03-17 17:38:00,23.6,0.0,30.14,SSE,154,2.0,5.0,35,0.00,,CLR,0.00,VWS V12.07,2013-03-17 22:38:00,
2013-03-17 17:40:00,23.5,-0.1,30.14,SE,145,1.0,5.0,35,0.00,,CLR,0.00,VWS V12.07,2013-03-17 22:40:00,
2013-03-17 17:42:00,23.3,0.9,30.14,SE,136,3.0,5.0,37,0.00,,CLR,0.00,VWS V12.07,2013-03-17 22:42:00,
2013-03-17 17:43:00,23.2,0.2,30.14,SSE,153,3.0,5.0,36,0.00,,CLR,0.00,VWS V12.07,2013-03-17 22:43:00,
2013-03-17 17:45:00,23.3,-0.9,30.13,SE,139,4.0,10.0,34,0.00,,CLR,0.00,VWS V12.07,2013-03-17 22:45:00,
2013-03-17 17:47:00,23.5,-0.1,30.13,SSE,158,1.0,10.0,35,0.00,,CLR,0.00,VWS V12.07,2013-03-17 22:47:00,
2013-03-17 17:49:00,23.6,-0.6,30.13,SSE,161,3.0,10.0,34,0.00,,CLR,0.00,VWS V12.07,2013-03-17 22:49:00,
2013-03-17 17:50:00,23.6,-1.3,30.13,SE,136,1.0,10.0,33,0.00,,BKN120,0.00,VWS V12.07,2013-03-17 22:50:00,
2013-03-17 17:52:00,23.8,-1.1,30.13,SE,141,3.0,10.0,33,0.00,,BKN120,0.00,VWS V12.07,2013-03-17 22:52:00,
2013-03-17 17:54:00,23.8,-0.5,30.13,SE,143,3.0,7.0,34,0.00,,BKN120,0.00,VWS V12.07,2013-03-17 22:54:00,
2013-03-17 17:55:00,23.8,1.3,30.13,SSE,154,2.0,7.0,37,0.00,,BKN120,0.00,VWS V12.07,2013-03-17 22:55:00,
2013-03-17 17:57:00,23.6,-0.6,30.13,SSE,164,2.0,10.0,34,0.00,,BKN120,0.00,VWS V12.07,2013-03-17 22:57:00,
2013-03-17 17:59:00,23.6,1.7,30.12,SSE,152,3.0,10.0,38,0.00,,BKN120,0.00,VWS V12.07,2013-03-17 22:59:00,
2013-03-17 18:00:00,23.6,0.6,30.12,SE,145,4.0,10.0,36,0.00,,BKN120,0.00,VWS V12.07,2013-03-17 23:00:00,
2013-03-17 18:02:00,23.6,0.6,30.12,SE,141,3.0,10.0,36,0.00,,BKN120,0.00,VWS V12.07,2013-03-17 23:02:00,
2013-03-17 18:04:00,23.6,0.6,30.12,SE,143,1.0,10.0,36,0.00,,BKN120,0.00,VWS V12.07,2013-03-17 23:04:00,
2013-03-17 18:07:00,23.6,0.0,30.12,ESE,122,2.0,10.0,35,0.00,,BKN120,0.00,VWS V12.07,2013-03-17 23:07:00,
2013-03-17 18:08:00,23.8,0.2,30.12,SSE,153,3.0,3.0,35,0.00,,BKN120,0.00,VWS V12.07,2013-03-17 23:08:00,
2013-03-17 18:09:00,23.8,0.2,30.12,SE,134,2.0,3.0,35,0.00,,BKN120,0.00,VWS V12.07,2013-03-17 23:09:00,
2013-03-17 18:10:00,22.2,0.5,30.12,SSE,151,3.0,7.0,38,0.00,,CLR,0.00,VWS V12.07,2013-03-17 23:10:00,
2013-03-17 18:12:00,23.8,0.2,30.12,SE,127,2.0,4.0,35,0.00,,BKN120,0.00,VWS V12.07,2013-03-17 23:12:00,
2013-03-17 18:13:00,23.8,-1.1,30.12,ESE,122,1.0,4.0,33,0.00,,BKN120,0.00,VWS V12.07,2013-03-17 23:13:00,
2013-03-17 18:15:00,23.8,0.2,30.11,SSE,167,2.0,7.0,35,0.00,,BKN120,0.00,VWS V12.07,2013-03-17 23:15:00,
2013-03-17 18:17:00,23.8,-0.5,30.11,SE,137,2.0,7.0,34,0.00,,BKN120,0.00,VWS V12.07,2013-03-17 23:17:00,
2013-03-17 18:18:00,23.8,-0.5,30.11,SE,128,1.0,7.0,34,0.00,,BKN120,0.00,VWS V12.07,2013-03-17 23:18:00,
2013-03-17 18:20:00,23.8,-0.5,30.11,SSE,155,2.0,7.0,34,0.00,,BKN120,0.00,VWS V12.07,2013-03-17 23:20:00,
2013-03-17 18:22:00,23.6,0.0,30.11,SE,139,4.0,7.0,35,0.00,,BKN120,0.00,VWS V12.07,2013-03-17 23:22:00,
2013-03-17 18:23:00,23.5,0.5,30.11,SSE,158,5.0,7.0,36,0.00,,BKN120,0.00,VWS V12.07,2013-03-17 23:23:00,
2013-03-17 18:25:00,23.3,-0.3,30.11,SSE,160,1.0,7.0,35,0.00,,BKN120,0.00,VWS V12.07,2013-03-17 23:25:00,
2013-03-17 18:28:00,23.3,-0.3,30.11,SSE,154,4.0,7.0,35,0.00,,BKN120,0.00,VWS V12.07,2013-03-17 23:28:00,
2013-03-17 18:29:00,23.3,-0.3,30.11,SSE,168,2.0,7.0,35,0.00,,BKN120,0.00,VWS V12.07,2013-03-17 23:29:00,
2013-03-17 18:30:00,21.4,0.8,30.12,SSE,164,3.0,7.0,40,0.00,,CLR,0.00,VWS V12.07,2013-03-17 23:30:00,
2013-03-17 18:31:00,23.2,0.2,30.12,SSE,147,1.0,7.0,36,0.00,,BKN120,0.00,VWS V12.07,2013-03-17 23:31:00,
2013-03-17 18:33:00,23.2,-0.4,30.12,SSE,151,3.0,7.0,35,0.00,,BKN120,0.00,VWS V12.07,2013-03-17 23:33:00,
2013-03-17 18:34:00,23.2,-0.4,30.12,SSE,150,3.0,7.0,35,0.00,,BKN120,0.00,VWS V12.07,2013-03-17 23:34:00,
2013-03-17 18:36:00,23.2,0.8,30.12,SSE,151,0.0,7.0,37,0.00,,BKN120,0.00,VWS V12.07,2013-03-17 23:36:00,
2013-03-17 18:38:00,23.0,0.6,30.12,SSE,158,5.0,6.0,37,0.00,,CLR,0.00,VWS V12.07,2013-03-17 23:38:00,
2013-03-17 18:39:00,23.0,1.2,30.12,South,179,3.0,7.0,38,0.00,,CLR,0.00,VWS V12.07,2013-03-17 23:39:00,
2013-03-17 18:40:00,21.3,1.8,30.12,SSE,154,6.0,7.0,42,0.00,,CLR,0.00,VWS V12.07,2013-03-17 23:40:00,
2013-03-17 18:41:00,22.9,0.5,30.12,SSE,157,5.0,9.0,37,0.00,,CLR,0.00,VWS V12.07,2013-03-17 23:41:00,
2013-03-17 18:44:00,22.7,-0.2,30.12,SSE,150,5.0,9.0,36,0.00,,CLR,0.00,VWS V12.07,2013-03-17 23:44:00,
2013-03-17 18:45:00,22.7,0.3,30.12,SSE,150,3.0,9.0,37,0.00,,CLR,0.00,VWS V12.07,2013-03-17 23:45:00,
2013-03-17 18:46:00,22.5,0.2,30.12,SSE,149,7.0,9.0,37,0.00,,CLR,0.00,VWS V12.07,2013-03-17 23:46:00,
2013-03-17 18:49:00,22.5,0.2,30.12,SSE,154,2.0,9.0,37,0.00,,CLR,0.00,VWS V12.07,2013-03-17 23:49:00,
2013-03-17 18:50:00,22.4,0.1,30.12,SSE,154,1.0,9.0,37,0.00,,CLR,0.00,VWS V12.07,2013-03-17 23:50:00,
2013-03-17 18:51:00,22.4,0.6,30.12,SSE,155,2.0,9.0,38,0.00,,CLR,0.00,VWS V12.07,2013-03-17 23:51:00,
2013-03-17 18:54:00,22.2,0.5,30.12,SSE,150,3.0,7.0,38,0.00,,CLR,0.00,VWS V12.07,2013-03-17 23:54:00,
2013-03-17 18:55:00,22.2,0.5,30.12,SSE,151,3.0,7.0,38,0.00,,CLR,0.00,VWS V12.07,2013-03-17 23:55:00,
2013-03-17 18:56:00,22.1,-0.2,30.12,SSE,160,1.0,7.0,37,0.00,,CLR,0.00,VWS V12.07,2013-03-17 23:56:00,
2013-03-17 18:57:00,22.1,-0.2,30.12,SSE,160,0.0,7.0,37,0.00,,CLR,0.00,VWS V12.07,2013-03-17 23:57:00,
2013-03-17 19:00:00,22.1,0.4,30.12,SE,134,3.0,7.0,38,0.00,,CLR,0.00,VWS V12.07,2013-03-18 00:00:00,
2013-03-17 19:02:00,22.1,1.5,30.12,SE,136,2.0,7.0,40,0.00,,CLR,0.00,VWS V12.07,2013-03-18 00:02:00,
2013-03-17 19:05:00,21.8,0.7,30.12,SE,146,5.0,7.0,39,0.00,,CLR,0.00,VWS V12.07,2013-03-18 00:05:00,
2013-03-17 19:07:00,21.8,0.7,30.12,SSE,150,2.0,7.0,39,0.00,,CLR,0.00,VWS V12.07,2013-03-18 00:07:00,
2013-03-17 19:10:00,20.5,2.5,30.12,SSE,161,4.0,5.0,45,0.00,,CLR,0.00,VWS V12.07,2013-03-18 00:10:00,
2013-03-17 19:12:00,21.4,1.4,30.12,SSE,157,2.0,7.0,41,0.00,,CLR,0.00,VWS V12.07,2013-03-18 00:12:00,
2013-03-17 19:13:00,21.4,0.8,30.12,SSE,152,3.0,7.0,40,0.00,,CLR,0.00,VWS V12.07,2013-03-18 00:13:00,
2013-03-17 19:17:00,21.3,1.3,30.12,SE,145,1.0,7.0,41,0.00,,CLR,0.00,VWS V12.07,2013-03-18 00:17:00,
2013-03-17 19:18:00,21.3,1.8,30.12,SSE,154,2.0,7.0,42,0.00,,CLR,0.00,VWS V12.07,2013-03-18 00:18:00,
2013-03-17 19:20:00,20.2,3.2,30.10,SE,146,1.0,7.0,47,0.00,,CLR,0.00,VWS V12.07,2013-03-18 00:20:00,
2013-03-17 19:22:00,21.3,1.3,30.12,SE,142,1.0,7.0,41,0.00,,CLR,0.00,VWS V12.07,2013-03-18 00:22:00,
2013-03-17 19:23:00,21.3,1.8,30.12,SE,128,5.0,7.0,42,0.00,,CLR,0.00,VWS V12.07,2013-03-18 00:23:00,
2013-03-17 19:27:00,21.3,1.8,30.12,SE,136,2.0,7.0,42,0.00,,CLR,0.00,VWS V12.07,2013-03-18 00:27:00,
2013-03-17 19:28:00,21.3,1.8,30.12,SE,127,2.0,7.0,42,0.00,,CLR,0.00,VWS V12.07,2013-03-18 00:28:00,
2013-03-17 19:29:00,21.3,1.8,30.12,SSE,153,1.0,7.0,42,0.00,,CLR,0.00,VWS V12.07,2013-03-18 00:29:00,
2013-03-17 19:30:00,19.5,3.5,30.10,SSE,158,2.0,6.0,49,0.00,,CLR,0.00,VWS V12.07,2013-03-18 00:30:00,
2013-03-17 19:32:00,21.1,2.1,30.12,South,171,4.0,7.0,43,0.00,,CLR,0.00,VWS V12.07,2013-03-18 00:32:00,
2013-03-17 19:33:00,21.1,1.6,30.12,SSE,160,4.0,7.0,42,0.00,,CLR,0.00,VWS V12.07,2013-03-18 00:33:00,
2013-03-17 19:34:00,21.0,2.0,30.12,SSE,150,3.0,6.0,43,0.00,,CLR,0.00,VWS V12.07,2013-03-18 00:34:00,
2013-03-17 19:37:00,21.0,2.0,30.12,SSE,148,2.0,5.0,43,0.00,,CLR,0.00,VWS V12.07,2013-03-18 00:37:00,
2013-03-17 19:39:00,21.0,2.0,30.12,SE,131,2.0,5.0,43,0.00,,CLR,0.00,VWS V12.07,2013-03-18 00:39:00,
2013-03-17 19:40:00,20.8,1.8,30.12,SSE,158,5.0,5.0,43,0.00,,CLR,0.00,VWS V12.07,2013-03-18 00:40:00,
2013-03-17 19:43:00,20.8,2.3,30.12,SSE,148,3.0,9.0,44,0.00,,CLR,0.00,VWS V12.07,2013-03-18 00:43:00,
2013-03-17 19:44:00,20.6,2.2,30.12,SSE,152,5.0,9.0,44,0.00,,CLR,0.00,VWS V12.07,2013-03-18 00:44:00,
2013-03-17 19:45:00,20.6,2.2,30.12,SSE,158,2.0,9.0,44,0.00,,CLR,0.00,VWS V12.07,2013-03-18 00:45:00,
2013-03-17 19:48:00,20.6,2.6,30.12,SSE,158,1.0,9.0,45,0.00,,CLR,0.00,VWS V12.07,2013-03-18 00:48:00,
2013-03-17 19:49:00,20.5,2.1,30.12,SE,145,2.0,9.0,44,0.00,,CLR,0.00,VWS V12.07,2013-03-18 00:49:00,
2013-03-17 19:50:00,20.5,2.5,30.12,ESE,109,1.0,9.0,45,0.00,,CLR,0.00,VWS V12.07,2013-03-18 00:50:00,
2013-03-17 19:53:00,20.5,3.0,30.12,SSE,160,2.0,9.0,46,0.00,,CLR,0.00,VWS V12.07,2013-03-18 00:53:00,
2013-03-17 19:54:00,20.5,3.0,30.12,SSE,155,4.0,5.0,46,0.00,,CLR,0.00,VWS V12.07,2013-03-18 00:54:00,
2013-03-17 19:55:00,20.5,2.5,30.12,SSE,161,4.0,5.0,45,0.00,,CLR,0.00,VWS V12.07,2013-03-18 00:55:00,
2013-03-17 19:58:00,20.3,2.8,30.12,SSE,155,3.0,7.0,46,0.00,,CLR,0.00,VWS V12.07,2013-03-18 00:58:00,
2013-03-17 19:59:00,20.3,2.8,30.10,SSE,156,4.0,7.0,46,0.00,,CLR,0.00,VWS V12.07,2013-03-18 00:59:00,
2013-03-17 20:00:00,20.3,2.8,30.10,SE,144,3.0,7.0,46,0.00,,CLR,0.00,VWS V12.07,2013-03-18 01:00:00,
2013-03-17 20:03:00,20.2,3.2,30.10,SE,144,3.0,7.0,47,0.00,,CLR,0.00,VWS V12.07,2013-03-18 01:03:00,
2013-03-17 20:05:00,20.2,3.2,30.10,SSE,157,3.0,7.0,47,0.00,,CLR,0.00,VWS V12.07,2013-03-18 01:05:00,
2013-03-17 20:06:00,20.0,3.0,30.10,SSE,147,6.0,7.0,47,0.00,,CLR,0.00,VWS V12.07,2013-03-18 01:06:00,
2013-03-17 20:08:00,19.9,2.9,30.10,SSE,152,3.0,6.0,47,0.00,,CLR,0.00,VWS V12.07,2013-03-18 01:08:00,
2013-03-17 20:10:00,19.9,3.4,30.10,South,174,2.0,6.0,48,0.00,,CLR,0.00,VWS V12.07,2013-03-18 01:10:00,
2013-03-17 20:11:00,19.7,3.2,30.10,SE,134,2.0,6.0,48,0.00,,CLR,0.00,VWS V12.07,2013-03-18 01:11:00,
2013-03-17 20:12:00,19.7,3.2,30.10,SSE,158,1.0,6.0,48,0.00,,CLR,0.00,VWS V12.07,2013-03-18 01:12:00,
2013-03-17 20:14:00,19.5,3.5,30.10,SSE,158,2.0,6.0,49,0.00,,CLR,0.00,VWS V12.07,2013-03-18 01:14:00,
2013-03-17 20:15:00,19.5,3.5,30.10,SSE,160,2.0,6.0,49,0.00,,CLR,0.00,VWS V12.07,2013-03-18 01:15:00,
2013-03-17 20:16:00,19.5,3.5,30.10,SSE,160,1.0,6.0,49,0.00,,CLR,0.00,VWS V12.07,2013-03-18 01:16:00,
2013-03-17 20:17:00,19.5,3.5,30.10,SSE,151,3.0,6.0,49,0.00,,CLR,0.00,VWS V12.07,2013-03-18 01:17:00,
2013-03-17 20:19:00,19.5,3.5,30.10,SE,124,4.0,6.0,49,0.00,,CLR,0.00,VWS V12.07,2013-03-18 01:19:00,
2013-03-17 20:20:00,19.5,3.5,30.10,SSE,166,5.0,6.0,49,0.00,,CLR,0.00,VWS V12.07,2013-03-18 01:20:00,
2013-03-17 20:21:00,19.5,3.5,30.10,SE,146,4.0,6.0,49,0.00,,CLR,0.00,VWS V12.07,2013-03-18 01:21:00,
2013-03-17 20:22:00,19.5,3.5,30.10,SSE,162,4.0,6.0,49,0.00,,CLR,0.00,VWS V12.07,2013-03-18 01:22:00,
2013-03-17 20:24:00,19.5,3.5,30.10,SSE,150,1.0,7.0,49,0.00,,CLR,0.00,VWS V12.07,2013-03-18 01:24:00,
2013-03-17 20:26:00,19.5,3.9,30.10,SSE,162,2.0,7.0,50,0.00,,CLR,0.00,VWS V12.07,2013-03-18 01:26:00,
2013-03-17 20:27:00,19.5,3.5,30.10,SSE,160,3.0,7.0,49,0.00,,CLR,0.00,VWS V12.07,2013-03-18 01:27:00,
2013-03-17 20:29:00,19.5,3.5,30.10,SE,145,0.0,7.0,49,0.00,,CLR,0.00,VWS V12.07,2013-03-18 01:29:00,
2013-03-17 20:30:00,19.1,6.0,30.08,SSE,149,3.0,11.0,56,0.00,,SCT110,0.00,VWS V12.07,2013-03-18 01:30:00,
2013-03-17 20:31:00,19.5,3.9,30.10,SSE,155,2.0,7.0,50,0.00,,CLR,0.00,VWS V12.07,2013-03-18 01:31:00,
2013-03-17 20:32:00,19.4,3.8,30.10,SSE,158,3.0,7.0,50,0.00,,CLR,0.00,VWS V12.07,2013-03-18 01:32:00,
2013-03-17 20:34:00,19.4,3.8,30.10,SSE,165,3.0,7.0,50,0.00,,CLR,0.00,VWS V12.07,2013-03-18 01:34:00,
2013-03-17 20:36:00,19.2,3.6,30.10,SSE,162,4.0,6.0,50,0.00,,CLR,0.00,VWS V12.07,2013-03-18 01:36:00,
2013-03-17 20:37:00,19.2,3.6,30.10,SSE,150,3.0,5.0,50,0.00,,CLR,0.00,VWS V12.07,2013-03-18 01:37:00,
2013-03-17 20:39:00,19.2,3.6,30.10,SE,131,2.0,5.0,50,0.00,,CLR,0.00,VWS V12.07,2013-03-18 01:39:00,
2013-03-17 20:40:00,18.9,6.2,30.08,SE,124,4.0,10.0,57,0.00,,SCT110,0.00,VWS V12.07,2013-03-18 01:40:00,
2013-03-17 20:41:00,19.2,4.1,30.10,SSE,157,4.0,5.0,51,0.00,,CLR,0.00,VWS V12.07,2013-03-18 01:41:00,
2013-03-17 20:43:00,19.2,4.1,30.10,SSE,159,5.0,6.0,51,0.00,,CLR,0.00,VWS V12.07,2013-03-18 01:43:00,
2013-03-17 20:44:00,19.2,4.5,30.10,SE,145,1.0,7.0,52,0.00,,CLR,0.00,VWS V12.07,2013-03-18 01:44:00,
2013-03-17 20:45:00,19.2,4.5,30.10,SE,145,2.0,7.0,52,0.00,,CLR,0.00,VWS V12.07,2013-03-18 01:45:00,
2013-03-17 20:46:00,19.2,4.5,30.10,SE,146,7.0,7.0,52,0.00,,CLR,0.00,VWS V12.07,2013-03-18 01:46:00,
2013-03-17 20:48:00,19.2,4.5,30.10,SE,146,6.0,7.0,52,0.00,,CLR,0.00,VWS V12.07,2013-03-18 01:48:00,
2013-03-17 20:49:00,19.2,4.9,30.10,SSE,150,4.0,7.0,53,0.00,,CLR,0.00,VWS V12.07,2013-03-18 01:49:00,
2013-03-17 20:50:00,19.2,4.9,30.10,South,181,6.0,7.0,53,0.00,,SCT110,0.00,VWS V12.07,2013-03-18 01:50:00,
2013-03-17 20:52:00,19.2,5.3,30.10,SSE,158,4.0,7.0,54,0.00,,SCT110,0.00,VWS V12.07,2013-03-18 01:52:00,
2013-03-17 20:53:00,19.2,5.3,30.10,SSE,149,3.0,7.0,54,0.00,,SCT110,0.00,VWS V12.07,2013-03-18 01:53:00,
2013-03-17 20:54:00,19.2,4.9,30.10,SSE,153,4.0,7.0,53,0.00,,SCT110,0.00,VWS V12.07,2013-03-18 01:54:00,
2013-03-17 20:55:00,19.2,5.3,30.10,SSE,160,2.0,7.0,54,0.00,,SCT110,0.00,VWS V12.07,2013-03-18 01:55:00,
2013-03-17 20:57:00,19.2,5.3,30.10,South,169,6.0,9.0,54,0.00,,SCT110,0.00,VWS V12.07,2013-03-18 01:57:00,
2013-03-17 20:58:00,19.2,4.9,30.10,SE,127,3.0,12.0,53,0.00,,SCT110,0.00,VWS V12.07,2013-03-18 01:58:00,
2013-03-17 20:59:00,19.4,5.5,30.08,South,169,3.0,12.0,54,0.00,,SCT110,0.00,VWS V12.07,2013-03-18 01:59:00,
2013-03-17 21:00:00,19.2,5.3,30.08,SE,129,3.0,12.0,54,0.00,,SCT110,0.00,VWS V12.07,2013-03-18 02:00:00,
2013-03-17 21:02:00,19.2,5.3,30.08,SSE,153,5.0,12.0,54,0.00,,SCT110,0.00,VWS V12.07,2013-03-18 02:02:00,
2013-03-17 21:03:00,19.2,5.3,30.08,SSE,154,2.0,12.0,54,0.00,,SCT110,0.00,VWS V12.07,2013-03-18 02:03:00,
2013-03-17 21:05:00,19.2,5.3,30.08,SSE,154,4.0,12.0,54,0.00,,SCT110,0.00,VWS V12.07,2013-03-18 02:05:00,
2013-03-17 21:06:00,19.2,5.7,30.08,SSE,151,4.0,12.0,55,0.00,,SCT110,0.00,VWS V12.07,2013-03-18 02:06:00,
2013-03-17 21:07:00,19.2,5.7,30.08,SSE,162,4.0,8.0,55,0.00,,SCT110,0.00,VWS V12.07,2013-03-18 02:07:00,
2013-03-17 21:09:00,19.1,6.0,30.08,SSE,167,6.0,8.0,56,0.00,,SCT110,0.00,VWS V12.07,2013-03-18 02:09:00,
2013-03-17 21:10:00,19.1,5.6,30.08,SSE,153,6.0,11.0,55,0.00,,SCT110,0.00,VWS V12.07,2013-03-18 02:10:00,
2013-03-17 21:12:00,19.1,5.6,30.08,SE,143,6.0,11.0,55,0.00,,SCT110,0.00,VWS V12.07,2013-03-18 02:12:00,
2013-03-17 21:15:00,19.1,6.0,30.08,SE,137,5.0,11.0,56,0.00,,SCT110,0.00,VWS V12.07,2013-03-18 02:15:00,
2013-03-17 21:17:00,18.9,5.8,30.08,SE,130,1.0,11.0,56,0.00,,SCT110,0.00,VWS V12.07,2013-03-18 02:17:00,
2013-03-17 21:20:00,18.9,5.8,30.08,SSE,164,6.0,11.0,56,0.00,,SCT110,0.00,VWS V12.07,2013-03-18 02:20:00,
2013-03-17 21:22:00,18.9,5.8,30.08,SSE,166,4.0,11.0,56,0.00,,SCT110,0.00,VWS V12.07,2013-03-18 02:22:00,
2013-03-17 21:23:00,18.9,6.2,30.08,SE,141,6.0,11.0,57,0.00,,SCT110,0.00,VWS V12.07,2013-03-18 02:23:00,
2013-03-17 21:26:00,18.9,6.2,30.08,South,186,5.0,13.0,57,0.00,,SCT110,0.00,VWS V12.07,2013-03-18 02:26:00,
2013-03-17 21:27:00,18.9,6.2,30.08,ESE,116,5.0,13.0,57,0.00,,SCT110,0.00,VWS V12.07,2013-03-18 02:27:00,
2013-03-17 21:28:00,18.8,6.1,30.08,SE,138,5.0,13.0,57,0.00,,SCT110,0.00,VWS V12.07,2013-03-18 02:28:00,
2013-03-17 21:30:00,17.2,7.1,30.06,South,173,1.0,14.0,64,0.00,,BKN100,0.00,VWS V12.07,2013-03-18 02:30:00,
2013-03-17 21:32:00,18.6,6.3,30.08,SSE,149,9.0,13.0,58,0.00,,SCT110,0.00,VWS V12.07,2013-03-18 02:32:00,
2013-03-17 21:33:00,18.6,6.3,30.08,SSW,192,3.0,13.0,58,0.00,,SCT110,0.00,VWS V12.07,2013-03-18 02:33:00,
2013-03-17 21:37:00,18.4,6.1,30.08,SE,146,9.0,14.0,58,0.00,,SCT110,0.00,VWS V12.07,2013-03-18 02:37:00,
2013-03-17 21:38:00,18.4,6.1,30.08,SSE,163,4.0,14.0,58,0.00,,SCT110,0.00,VWS V12.07,2013-03-18 02:38:00,
2013-03-17 21:40:00,16.9,7.8,30.06,SE,130,3.0,14.0,67,0.00,,BKN100,0.00,VWS V12.07,2013-03-18 02:40:00,
2013-03-17 21:42:00,18.3,6.4,30.08,SSE,150,5.0,14.0,59,0.00,,SCT100,0.00,VWS V12.07,2013-03-18 02:42:00,
2013-03-17 21:43:00,18.3,6.4,30.08,SSE,162,4.0,14.0,59,0.00,,SCT100,0.00,VWS V12.07,2013-03-18 02:43:00,
2013-03-17 21:47:00,18.1,6.6,30.08,SSE,150,2.0,10.0,60,0.00,,SCT100,0.00,VWS V12.07,2013-03-18 02:47:00,
2013-03-17 21:49:00,18.0,6.5,30.08,SE,131,2.0,10.0,60,0.00,,SCT100,0.00,VWS V12.07,2013-03-18 02:49:00,
2013-03-17 21:50:00,16.5,7.8,30.06,SE,141,3.0,15.0,68,0.00,,SCT100,0.00,VWS V12.07,2013-03-18 02:50:00,
2013-03-17 21:52:00,17.8,6.3,30.08,SSE,153,2.0,10.0,60,0.00,,BKN100,0.00,VWS V12.07,2013-03-18 02:52:00,
2013-03-17 21:54:00,17.8,6.3,30.08,SE,142,8.0,10.0,60,0.00,,BKN100,0.00,VWS V12.07,2013-03-18 02:54:00,
2013-03-17 21:57:00,17.7,6.2,30.08,South,179,4.0,9.0,60,0.00,,BKN100,0.00,VWS V12.07,2013-03-18 02:57:00,
2013-03-17 21:59:00,17.7,6.6,30.08,SSE,147,2.0,9.0,61,0.00,,BKN100,0.00,VWS V12.07,2013-03-18 02:59:00,
2013-03-17 22:00:00,16.1,7.7,30.06,South,177,2.0,8.0,69,0.00,,CLR,0.00,VWS V12.07,2013-03-18 03:00:00,
2013-03-17 22:03:00,17.7,6.6,30.06,SSE,156,3.0,11.0,61,0.00,,BKN100,0.00,VWS V12.07,2013-03-18 03:03:00,
2013-03-17 22:04:00,17.5,6.7,30.06,SE,146,5.0,12.0,62,0.00,,BKN100,0.00,VWS V12.07,2013-03-18 03:04:00,
2013-03-17 22:08:00,17.5,7.1,30.06,SSE,158,3.0,9.0,63,0.00,,BKN100,0.00,VWS V12.07,2013-03-18 03:08:00,
2013-03-17 22:09:00,17.5,7.1,30.06,SSE,164,4.0,9.0,63,0.00,,BKN100,0.00,VWS V12.07,2013-03-18 03:09:00,
2013-03-17 22:10:00,15.7,7.7,30.06,SE,130,2.0,10.0,70,0.00,,CLR,0.00,VWS V12.07,2013-03-18 03:10:00,
2013-03-17 22:13:00,17.3,7.2,30.06,SSE,157,6.0,13.0,64,0.00,,BKN100,0.00,VWS V12.07,2013-03-18 03:13:00,
2013-03-17 22:14:00,17.3,7.2,30.06,SSE,158,6.0,13.0,64,0.00,,BKN100,0.00,VWS V12.07,2013-03-18 03:14:00,
2013-03-17 22:15:00,17.2,7.1,30.06,South,174,3.0,14.0,64,0.00,,BKN100,0.00,VWS V12.07,2013-03-18 03:15:00,
2013-03-17 22:18:00,17.0,7.6,30.06,SSE,153,7.0,14.0,66,0.00,,BKN100,0.00,VWS V12.07,2013-03-18 03:18:00,
2013-03-17 22:19:00,17.0,7.6,30.06,SSE,150,5.0,14.0,66,0.00,,BKN100,0.00,VWS V12.07,2013-03-18 03:19:00,
2013-03-17 22:20:00,17.0,7.6,30.06,South,176,3.0,14.0,66,0.00,,BKN100,0.00,VWS V12.07,2013-03-18 03:20:00,
2013-03-17 22:21:00,17.0,7.6,30.06,SE,136,5.0,14.0,66,0.00,,BKN100,0.00,VWS V12.07,2013-03-18 03:21:00,
2013-03-17 22:23:00,16.9,7.8,30.06,SSE,150,5.0,14.0,67,0.00,,BKN100,0.00,VWS V12.07,2013-03-18 03:23:00,
2013-03-17 22:24:00,16.9,7.8,30.06,SE,144,5.0,14.0,67,0.00,,BKN100,0.00,VWS V12.07,2013-03-18 03:24:00,
2013-03-17 22:26:00,16.9,7.8,30.06,SSE,148,5.0,14.0,67,0.00,,BKN100,0.00,VWS V12.07,2013-03-18 03:26:00,
2013-03-17 22:28:00,16.9,7.8,30.06,SE,142,3.0,15.0,67,0.00,,BKN100,0.00,VWS V12.07,2013-03-18 03:28:00,
2013-03-17 22:30:00,16.7,7.7,30.06,SE,133,4.0,15.0,67,0.00,,BKN100,0.00,VWS V12.07,2013-03-18 03:30:00,
2013-03-17 22:31:00,16.7,8.0,30.06,SSE,163,4.0,15.0,68,0.00,,BKN100,0.00,VWS V12.07,2013-03-18 03:31:00,
2013-03-17 22:32:00,16.5,7.8,30.06,SE,141,3.0,15.0,68,0.00,,BKN100,0.00,VWS V12.07,2013-03-18 03:32:00,
2013-03-17 22:33:00,16.5,7.8,30.06,SSE,148,4.0,15.0,68,0.00,,BKN100,0.00,VWS V12.07,2013-03-18 03:33:00,
2013-03-17 22:35:00,16.4,7.7,30.06,SSE,149,3.0,15.0,68,0.00,,BKN100,0.00,VWS V12.07,2013-03-18 03:35:00,
2013-03-17 22:38:00,16.2,7.5,30.06,SSE,153,4.0,15.0,68,0.00,,BKN100,0.00,VWS V12.07,2013-03-18 03:38:00,
2013-03-17 22:39:00,16.2,7.8,30.06,ESE,118,3.0,15.0,69,0.00,,BKN100,0.00,VWS V12.07,2013-03-18 03:39:00,
2013-03-17 22:40:00,14.8,7.1,30.05,SSE,153,3.0,6.0,71,0.00,,CLR,0.00,VWS V12.07,2013-03-18 03:40:00,
2013-03-17 22:41:00,16.1,7.7,30.06,SE,143,7.0,15.0,69,0.00,,SCT100,0.00,VWS V12.07,2013-03-18 03:41:00,
2013-03-17 22:43:00,16.1,7.7,30.06,SSE,161,4.0,15.0,69,0.00,,SCT100,0.00,VWS V12.07,2013-03-18 03:43:00,
2013-03-17 22:44:00,16.1,7.7,30.06,SSE,167,2.0,8.0,69,0.00,,SCT100,0.00,VWS V12.07,2013-03-18 03:44:00,
2013-03-17 22:46:00,15.9,7.9,30.06,SE,145,5.0,8.0,70,0.00,,SCT100,0.00,VWS V12.07,2013-03-18 03:46:00,
2013-03-17 22:48:00,15.9,7.9,30.06,South,174,2.0,8.0,70,0.00,,SCT100,0.00,VWS V12.07,2013-03-18 03:48:00,
2013-03-17 22:49:00,15.9,7.5,30.06,SSE,157,5.0,8.0,69,0.00,,SCT100,0.00,VWS V12.07,2013-03-18 03:49:00,
2013-03-17 22:50:00,14.8,7.4,30.04,SSE,152,2.0,6.0,72,0.00,,SCT110,0.00,VWS V12.07,2013-03-18 03:50:00,
2013-03-17 22:52:00,15.9,7.9,30.06,SSE,167,1.0,9.0,70,0.00,,CLR,0.00,VWS V12.07,2013-03-18 03:52:00,
2013-03-17 22:53:00,15.7,7.7,30.06,SSE,153,3.0,9.0,70,0.00,,CLR,0.00,VWS V12.07,2013-03-18 03:53:00,
2013-03-17 22:54:00,15.7,7.7,30.06,SSE,147,5.0,10.0,70,0.00,,CLR,0.00,VWS V12.07,2013-03-18 03:54:00,
2013-03-17 22:57:00,15.7,7.7,30.06,SSE,164,0.0,10.0,70,0.00,,CLR,0.00,VWS V12.07,2013-03-18 03:57:00,
2013-03-17 22:58:00,15.7,7.7,30.06,SSE,160,4.0,10.0,70,0.00,,CLR,0.00,VWS V12.07,2013-03-18 03:58:00,
2013-03-17 23:00:00,15.7,7.7,30.05,SSE,155,1.0,10.0,70,0.00,,CLR,0.00,VWS V12.07,2013-03-18 04:00:00,
2013-03-17 23:05:00,15.4,7.4,30.05,SSE,163,3.0,10.0,70,0.00,,CLR,0.00,VWS V12.07,2013-03-18 04:05:00,
2013-03-17 23:07:00,15.4,7.4,30.05,SSE,156,3.0,0.0,70,0.00,,CLR,0.00,VWS V12.07,2013-03-18 04:07:00,
2013-03-17 23:10:00,15.4,7.7,30.05,SSE,166,1.0,8.0,71,0.00,,CLR,0.00,VWS V12.07,2013-03-18 04:10:00,
2013-03-17 23:12:00,15.2,7.5,30.05,SSE,158,3.0,8.0,71,0.00,,CLR,0.00,VWS V12.07,2013-03-18 04:12:00,
2013-03-17 23:15:00,15.2,7.5,30.05,SSE,150,4.0,8.0,71,0.00,,CLR,0.00,VWS V12.07,2013-03-18 04:15:00,
2013-03-17 23:16:00,15.2,7.5,30.05,South,169,2.0,8.0,71,0.00,,CLR,0.00,VWS V12.07,2013-03-18 04:16:00,
2013-03-17 23:17:00,15.1,7.4,30.05,SSE,152,4.0,8.0,71,0.00,,CLR,0.00,VWS V12.07,2013-03-18 04:17:00,
2013-03-17 23:20:00,15.1,7.4,30.05,SSE,160,3.0,8.0,71,0.00,,CLR,0.00,VWS V12.07,2013-03-18 04:20:00,
2013-03-17 23:21:00,15.1,7.4,30.05,SSE,151,3.0,8.0,71,0.00,,CLR,0.00,VWS V12.07,2013-03-18 04:21:00,
2013-03-17 23:23:00,14.9,7.2,30.05,SSE,147,1.0,8.0,71,0.00,,CLR,0.00,VWS V12.07,2013-03-18 04:23:00,
2013-03-17 23:25:00,14.8,7.1,30.05,South,181,2.0,6.0,71,0.00,,CLR,0.00,VWS V12.07,2013-03-18 04:25:00,
2013-03-17 23:27:00,14.8,7.4,30.05,SSE,157,3.0,6.0,72,0.00,,CLR,0.00,VWS V12.07,2013-03-18 04:27:00,
2013-03-17 23:28:00,14.8,7.4,30.05,SSE,152,1.0,6.0,72,0.00,,CLR,0.00,VWS V12.07,2013-03-18 04:28:00,
2013-03-17 23:30:00,14.6,7.8,30.02,SE,144,4.0,12.0,74,0.00,,CLR,0.00,VWS V12.07,2013-03-18 04:30:00,
2013-03-17 23:32:00,14.8,7.4,30.04,South,174,2.0,6.0,72,0.00,,CLR,0.00,VWS V12.07,2013-03-18 04:32:00,
2013-03-17 23:33:00,14.8,7.4,30.04,SSE,148,2.0,6.0,72,0.00,,CLR,0.00,VWS V12.07,2013-03-18 04:33:00,
2013-03-17 23:37:00,14.8,7.4,30.04,SSE,155,3.0,4.0,72,0.00,,SCT110,0.00,VWS V12.07,2013-03-18 04:37:00,
2013-03-17 23:38:00,14.6,7.2,30.04,SSE,150,3.0,5.0,72,0.00,,SCT110,0.00,VWS V12.07,2013-03-18 04:38:00,
2013-03-17 23:39:00,14.6,7.2,30.04,SE,141,6.0,7.0,72,0.00,,SCT110,0.00,VWS V12.07,2013-03-18 04:39:00,
2013-03-17 23:40:00,14.3,7.8,30.02,SE,138,5.0,12.0,75,0.00,,CLR,0.00,VWS V12.07,2013-03-18 04:40:00,
2013-03-17 23:42:00,14.8,7.4,30.04,SSE,160,2.0,7.0,72,0.00,,SCT110,0.00,VWS V12.07,2013-03-18 04:42:00,
2013-03-17 23:43:00,14.8,7.4,30.04,SE,139,2.0,7.0,72,0.00,,SCT110,0.00,VWS V12.07,2013-03-18 04:43:00,
2013-03-17 23:44:00,14.6,7.2,30.04,SSE,149,3.0,7.0,72,0.00,,SCT110,0.00,VWS V12.07,2013-03-18 04:44:00,
2013-03-17 23:47:00,14.6,7.5,30.04,SSE,168,2.0,7.0,73,0.00,,SCT110,0.00,VWS V12.07,2013-03-18 04:47:00,
2013-03-17 23:48:00,14.6,7.5,30.04,SE,144,1.0,7.0,73,0.00,,SCT110,0.00,VWS V12.07,2013-03-18 04:48:00,
2013-03-17 23:49:00,14.4,7.3,30.04,SSE,156,1.0,7.0,73,0.00,,SCT110,0.00,VWS V12.07,2013-03-18 04:49:00,
2013-03-17 23:50:00,14.3,8.1,30.02,SSE,148,3.0,12.0,76,0.00,,SCT110,0.00,VWS V12.07,2013-03-18 04:50:00,
2013-03-17 23:52:00,14.4,7.3,30.04,SE,143,2.0,13.0,73,0.00,,CLR,0.00,VWS V12.07,2013-03-18 04:52:00,
2013-03-17 23:53:00,14.4,7.3,30.04,SSE,154,1.0,13.0,73,0.00,,CLR,0.00,VWS V12.07,2013-03-18 04:53:00,
2013-03-17 23:54:00,14.4,7.3,30.04,South,174,6.0,13.0,73,0.00,,CLR,0.00,VWS V12.07,2013-03-18 04:54:00,
2013-03-17 23:55:00,14.6,7.5,30.04,SE,128,3.0,13.0,73,0.00,,CLR,0.00,VWS V12.07,2013-03-18 04:55:00,
2013-03-17 23:57:00,14.6,7.8,30.04,SSE,165,4.0,13.0,74,0.00,,CLR,0.00,VWS V12.07,2013-03-18 04:57:00,
2013-03-17 23:58:00,14.6,7.8,30.04,SE,131,5.0,13.0,74,0.00,,CLR,0.00,VWS V12.07,2013-03-18 04:58:00,
2013-03-17 23:59:00,14.6,7.8,30.02,SSE,148,7.0,13.0,74,0.00,,CLR,0.00,VWS V12.07,2013-03-18 04:59:00,